EA1FJG Weather Reports


Display with metric or nautical units.
time (UTC)temp
F
wind
direction
speed
MPH
gust
MPH
rain 1hr
in
rain 24hr
in
rain mn
in
humidity
%
barometer
mb
20260507120224 64 343 3.0 8.0 0.00 0.00 0.00 78 1011.3
20260507120004 64 350 3.0 9.0 0.00 0.00 0.00 78 1011.3
20260507115903 64 353 3.0 9.0 0.00 0.00 0.00 79 1011.3
20260507115824 64 353 3.0 9.0 0.00 0.00 0.00 79 1011.3
20260507115703 64 357 4.0 9.0 0.00 0.00 0.00 79 1011.4
20260507115603 64 357 3.0 9.0 0.00 0.00 0.00 79 1011.3
20260507115503 64 357 3.0 9.0 0.00 0.00 0.00 79 1011.3
20260507115403 64 353 3.0 9.0 0.00 0.00 0.00 80 1011.1
20260507115306 63 355 3.0 9.0 0.00 0.00 0.00 81 1011.2
20260507115203 63 356 4.0 9.0 0.00 0.00 0.00 80 1011.1
20260507115124 63 1 4.0 9.0 0.00 0.00 0.00 80 1011.1
20260507115003 62 1 4.0 9.0 0.00 0.00 0.00 81 1011.3
20260507114903 62 2 4.0 7.0 0.00 0.00 0.00 81 1011.2
20260507114803 62 2 4.0 7.0 0.00 0.00 0.00 81 1011.1
20260507114703 61 4 4.0 7.0 0.00 0.00 0.00 81 1011.5
20260507114624 61 1 4.0 7.0 0.00 0.00 0.00 81 1011.2
20260507114524 61 360 4.0 8.0 0.00 0.00 0.00 80 1011.3
20260507114403 61 356 4.0 8.0 0.00 0.00 0.00 80 1011.2
20260507114303 61 356 4.0 8.0 0.00 0.00 0.00 80 1011.2
20260507114203 61 351 4.0 8.0 0.00 0.00 0.00 81 1011.2
20260507114103 62 342 4.0 8.0 0.00 0.00 0.00 80 1011.3
20260507114003 62 342 4.0 8.0 0.00 0.00 0.00 80 1011.3
20260507113903 62 334 3.0 8.0 0.00 0.00 0.00 79 1011.4
20260507113803 62 323 3.0 8.0 0.00 0.00 0.00 80 1011.3
20260507113703 62 316 4.0 8.0 0.00 0.00 0.00 78 1011.3
20260507113603 63 304 4.0 9.0 0.00 0.00 0.00 77 1011.4
20260507113503 64 298 4.0 9.0 0.00 0.00 0.00 77 1011.3
20260507113403 64 295 3.0 9.0 0.00 0.00 0.00 77 1011.5
20260507113303 64 297 3.0 9.0 0.00 0.00 0.00 77 1011.3
20260507113203 64 296 4.0 9.0 0.00 0.00 0.00 78 1011.4
20260507113103 64 298 4.0 9.0 0.00 0.00 0.00 78 1011.3
20260507113003 63 299 3.0 9.0 0.00 0.00 0.00 79 1011.2
20260507112924 63 300 3.0 9.0 0.00 0.00 0.00 79 1011.3
20260507112803 64 302 4.0 9.0 0.00 0.00 0.00 78 1011.3
20260507112703 64 307 3.0 9.0 0.00 0.00 0.00 78 1011.1
20260507112603 64 324 3.0 7.0 0.00 0.00 0.00 80 1011.1
20260507112503 64 326 3.0 7.0 0.00 0.00 0.00 78 1011.2
20260507112403 64 318 3.0 7.0 0.00 0.00 0.00 78 1011.2
20260507112306 64 318 3.0 7.0 0.00 0.00 0.00 78 1011.2
20260507112203 64 317 3.0 7.0 0.00 0.00 0.00 79 1011.2
20260507112124 64 318 3.0 7.0 0.00 0.00 0.00 81 1011.2
20260507112003 64 324 3.0 7.0 0.00 0.00 0.00 80 1011.0
20260507111924 63 325 3.0 7.0 0.00 0.00 0.00 80 1011.1
20260507111803 63 327 3.0 7.0 0.00 0.00 0.00 79 1011.3
20260507111703 63 336 3.0 8.0 0.00 0.00 0.00 80 1011.3
20260507111603 63 334 3.0 8.0 0.00 0.00 0.00 79 1011.4
20260507111503 63 328 4.0 8.0 0.00 0.00 0.00 79 1011.1
20260507111403 63 328 4.0 8.0 0.00 0.00 0.00 79 1011.2
20260507111303 63 330 3.0 8.0 0.00 0.00 0.00 79 1011.2
20260507111224 62 328 3.0 8.0 0.00 0.00 0.00 79 1011.0
20260507111124 62 328 3.0 8.0 0.00 0.00 0.00 79 1011.0
20260507111003 62 333 3.0 8.0 0.00 0.00 0.00 78 1011.1
20260507110903 63 337 3.0 8.0 0.00 0.00 0.00 78 1011.2
20260507110803 63 337 3.0 8.0 0.00 0.00 0.00 78 1011.2
20260507110703 63 339 3.0 8.0 0.00 0.00 0.00 78 1011.0
20260507110603 63 335 3.0 7.0 0.00 0.00 0.00 78 1010.9
20260507110503 63 337 3.0 7.0 0.00 0.00 0.00 78 1011.1
20260507110403 63 347 3.0 6.0 0.00 0.00 0.00 78 1010.9
20260507110303 63 348 3.0 8.0 0.00 0.00 0.00 79 1011.1
20260507110203 63 344 3.0 8.0 0.00 0.00 0.00 79 1011.2
20260507110104 63 340 4.0 8.0 0.00 0.00 0.00 78 1011.2
20260507110003 63 339 3.0 8.0 0.00 0.00 0.00 77 1010.9
20260507105903 63 334 3.0 8.0 0.00 0.00 0.00 77 1011.0
20260507105803 63 331 3.0 8.0 0.00 0.00 0.00 77 1011.2
20260507105703 63 328 3.0 8.0 0.00 0.00 0.00 77 1011.2
20260507105603 63 324 4.0 8.0 0.00 0.00 0.00 77 1011.2
20260507105503 63 322 4.0 8.0 0.00 0.00 0.00 77 1011.4
20260507105424 63 322 4.0 8.0 0.00 0.00 0.00 77 1011.4
20260507105306 63 310 3.0 7.0 0.00 0.00 0.00 77 1011.1
20260507105203 63 313 3.0 7.0 0.00 0.00 0.00 78 1011.0
20260507105124 63 313 3.0 7.0 0.00 0.00 0.00 78 1011.0
20260507105024 63 313 3.0 7.0 0.00 0.00 0.00 78 1011.3
20260507104903 63 310 3.0 7.0 0.00 0.00 0.00 77 1011.3
20260507104803 63 310 3.0 7.0 0.00 0.00 0.00 77 1011.3
20260507104703 63 316 3.0 7.0 0.00 0.00 0.00 77 1011.3
20260507104603 63 323 3.0 7.0 0.00 0.00 0.00 76 1011.3
20260507104503 63 337 3.0 6.0 0.00 0.00 0.00 77 1011.3
20260507104403 63 345 3.0 6.0 0.00 0.00 0.00 77 1011.2
20260507104303 63 356 4.0 6.0 0.00 0.00 0.00 77 1011.2
20260507104204 63 3 4.0 6.0 0.00 0.00 0.00 77 1011.3
20260507104103 63 8 4.0 6.0 0.00 0.00 0.00 77 1011.4
20260507104003 62 18 4.0 6.0 0.00 0.00 0.00 78 1011.2
20260507103903 62 25 4.0 6.0 0.00 0.00 0.00 77 1011.4
20260507103824 63 33 4.0 6.0 0.00 0.00 0.00 77 1011.3
20260507103724 63 34 3.0 6.0 0.00 0.00 0.00 78 1011.2
20260507103603 62 35 3.0 6.0 0.00 0.00 0.00 79 1011.2
20260507103503 62 36 3.0 6.0 0.00 0.00 0.00 78 1011.3
20260507103403 62 36 3.0 6.0 0.00 0.00 0.00 77 1011.3
20260507103303 62 37 3.0 6.0 0.00 0.00 0.00 77 1011.3
20260507103203 62 37 2.0 6.0 0.00 0.00 0.00 78 1011.3
20260507103103 62 37 2.0 6.0 0.00 0.00 0.00 78 1011.3
20260507103003 63 37 2.0 6.0 0.00 0.00 0.00 77 1011.2
20260507102903 63 37 2.0 6.0 0.00 0.00 0.00 77 1011.2
20260507102803 63 37 2.0 4.0 0.00 0.00 0.00 78 1011.2
20260507102724 63 37 2.0 4.0 0.00 0.00 0.00 77 1011.2
20260507102603 63 37 2.0 4.0 0.00 0.00 0.00 77 1011.2
20260507102503 63 37 2.0 4.0 0.00 0.00 0.00 77 1011.3
20260507102403 63 37 2.0 4.0 0.00 0.00 0.00 76 1011.2
20260507102306 64 37 2.0 4.0 0.00 0.00 0.00 75 1011.1
20260507102203 64 37 2.0 4.0 0.00 0.00 0.00 76 1011.2
20260507102103 64 37 2.0 4.0 0.00 0.00 0.00 76 1011.1
20260507102003 64 37 2.0 4.0 0.00 0.00 0.00 75 1011.2
20260507101924 64 37 1.0 3.0 0.00 0.00 0.00 75 1011.1
20260507101803 63 37 1.0 3.0 0.00 0.00 0.00 74 1011.2
20260507101724 63 37 1.0 3.0 0.00 0.00 0.00 74 1011.2
20260507101603 63 37 1.0 2.0 0.00 0.00 0.00 71 1011.3
20260507101503 63 37 1.0 2.0 0.00 0.00 0.00 70 1011.2
20260507101403 64 37 1.0 3.0 0.00 0.00 0.00 69 1011.1
20260507101303 64 37 1.0 3.0 0.00 0.00 0.00 69 1011.2
20260507101203 64 37 1.0 3.0 0.00 0.00 0.00 70 1011.2
20260507101103 64 37 1.0 3.0 0.00 0.00 0.00 70 1011.2
20260507101003 63 37 1.0 3.0 0.00 0.00 0.00 70 1011.1
20260507100903 62 37 1.0 3.0 0.00 0.00 0.00 72 1011.1
20260507100824 62 37 1.0 3.0 0.00 0.00 0.00 71 1011.2
20260507100703 62 37 1.0 3.0 0.00 0.00 0.00 71 1011.3
20260507100603 62 37 1.0 3.0 0.00 0.00 0.00 72 1011.2
20260507100503 63 37 1.0 3.0 0.00 0.00 0.00 72 1011.3
20260507100403 63 37 1.0 3.0 0.00 0.00 0.00 72 1011.2
20260507100303 63 37 1.0 3.0 0.00 0.00 0.00 74 1011.3
20260507100224 63 37 1.0 3.0 0.00 0.00 0.00 74 1011.3
20260507100003 62 37 1.0 3.0 0.00 0.00 0.00 72 1011.3
20260507095903 62 37 1.0 3.0 0.00 0.00 0.00 72 1011.3
20260507095803 62 37 1.0 3.0 0.00 0.00 0.00 72 1011.3
20260507095703 62 37 1.0 3.0 0.00 0.00 0.00 72 1011.1
20260507095603 62 37 1.0 3.0 0.00 0.00 0.00 73 1011.2
20260507095504 62 37 1.0 3.0 0.00 0.00 0.00 75 1011.2
20260507095403 62 37 1.0 3.0 0.00 0.00 0.00 72 1010.9
20260507095305 63 37 1.0 3.0 0.00 0.00 0.00 74 1011.2
20260507095203 62 37 1.0 3.0 0.00 0.00 0.00 76 1011.1
20260507095103 62 37 1.0 3.0 0.00 0.00 0.00 76 1011.1
20260507095003 62 37 1.0 3.0 0.00 0.00 0.00 76 1011.2
20260507094903 62 37 1.0 3.0 0.00 0.00 0.00 74 1011.1
20260507094803 62 37 1.0 3.0 0.00 0.00 0.00 74 1011.2
20260507094703 62 37 1.0 3.0 0.00 0.00 0.00 76 1011.2
20260507094603 62 37 2.0 3.0 0.00 0.00 0.00 73 1011.1
20260507094503 62 37 1.0 3.0 0.00 0.00 0.00 74 1011.1
20260507094403 62 37 1.0 3.0 0.00 0.00 0.00 75 1011.2
20260507094303 62 37 1.0 3.0 0.00 0.00 0.00 75 1011.1
20260507094203 62 37 1.0 3.0 0.00 0.00 0.00 76 1011.2
20260507094104 62 37 1.0 3.0 0.00 0.00 0.00 76 1011.1
20260507094003 62 37 1.0 3.0 0.00 0.00 0.00 77 1011.3
20260507093903 62 37 1.0 3.0 0.00 0.00 0.00 77 1011.3
20260507093803 62 37 1.0 3.0 0.00 0.00 0.00 76 1011.2
20260507093703 62 37 1.0 2.0 0.00 0.00 0.00 76 1011.2
20260507093603 62 37 1.0 2.0 0.00 0.00 0.00 76 1011.2
20260507093503 62 37 1.0 2.0 0.00 0.00 0.00 78 1011.2
20260507093403 61 37 1.0 2.0 0.00 0.00 0.00 78 1011.3
20260507093324 61 37 1.0 2.0 0.00 0.00 0.00 78 1011.4
20260507093203 60 37 1.0 2.0 0.00 0.00 0.00 79 1011.4
20260507093103 60 37 1.0 2.0 0.00 0.00 0.00 77 1011.5
20260507093024 61 37 1.0 2.0 0.00 0.00 0.00 76 1011.3
20260507092924 61 37 1.0 2.0 0.00 0.00 0.00 77 1011.4
20260507092803 61 37 1.0 2.0 0.00 0.00 0.00 78 1011.3
20260507092703 60 37 1.0 2.0 0.00 0.00 0.00 79 1011.3
20260507092603 60 37 1.0 2.0 0.00 0.00 0.00 80 1011.3
20260507092503 59 37 1.0 2.0 0.00 0.00 0.00 80 1011.3
20260507092424 59 37 1.0 2.0 0.00 0.00 0.00 80 1011.3
20260507092324 59 37 1.0 2.0 0.00 0.00 0.00 80 1011.4
20260507092224 59 37 1.0 2.0 0.00 0.00 0.00 81 1011.4
20260507092103 61 37 1.0 2.0 0.00 0.00 0.00 85 1011.3
20260507092003 61 37 0.0 2.0 0.00 0.00 0.00 89 1011.4
20260507091903 61 37 0.0 2.0 0.00 0.00 0.00 89 1011.4
20260507091803 61 37 0.0 2.0 0.00 0.00 0.00 91 1011.5
20260507091703 61 37 0.0 2.0 0.00 0.00 0.00 93 1011.4
20260507091603 60 37 1.0 2.0 0.00 0.00 0.00 95 1011.4
20260507091503 59 37 1.0 2.0 0.00 0.00 0.00 96 1011.4
20260507091424 59 37 1.0 2.0 0.00 0.00 0.00 97 1011.5
20260507091324 59 37 1.0 2.0 0.00 0.00 0.00 97 1011.5
20260507091203 59 37 0.0 2.0 0.00 0.00 0.00 98 1011.4
20260507091103 59 37 1.0 2.0 0.00 0.00 0.00 98 1011.4
20260507091003 59 37 1.0 2.0 0.00 0.00 0.00 98 1011.6
20260507090903 58 37 0.0 2.0 0.00 0.00 0.00 99 1011.5
20260507090803 58 37 0.0 2.0 0.00 0.00 0.00 99 1011.5
20260507090724 58 37 0.0 2.0 0.00 0.00 0.00 99 1011.5
20260507090603 57 37 1.0 2.0 0.00 0.00 0.00 99 1011.5
20260507090503 57 37 1.0 2.0 0.00 0.00 0.00 99 1011.5
20260507090403 57 37 1.0 2.0 0.00 0.00 0.00 99 1011.5
20260507090303 57 37 1.0 2.0 0.00 0.00 0.00 99 1011.5
20260507090203 57 37 1.0 2.0 0.00 0.00 0.00 99 1011.4
20260507090003 57 37 1.0 2.0 0.00 0.00 0.00 99 1011.6
20260507085903 57 37 1.0 2.0 0.00 0.00 0.00 99 1011.4
20260507085803 56 37 1.0 2.0 0.00 0.00 0.00 99 1011.6
20260507085703 54 37 1.0 2.0 0.00 0.00 0.00 99 1011.6
20260507085603 54 37 1.0 2.0 0.00 0.00 0.00 99 1011.5
20260507085503 56 37 1.0 2.0 0.00 0.00 0.00 99 1011.6
20260507085403 56 37 1.0 2.0 0.00 0.00 0.00 99 1011.5
20260507085306 56 37 0.0 2.0 0.00 0.00 0.00 99 1011.6
20260507085203 56 38 0.0 2.0 0.00 0.00 0.00 99 1011.7
20260507085124 56 38 0.0 2.0 0.00 0.00 0.00 99 1011.5
20260507085003 56 39 0.0 2.0 0.00 0.00 0.00 99 1011.6
20260507084903 56 39 0.0 2.0 0.00 0.00 0.00 99 1011.8
20260507084824 56 39 0.0 2.0 0.00 0.00 0.00 99 1011.8
20260507084703 55 40 0.0 2.0 0.00 0.00 0.00 99 1011.8
20260507084603 55 50 0.0 2.0 0.00 0.00 0.00 99 1011.9
20260507084503 55 51 1.0 2.0 0.00 0.00 0.00 99 1011.6
20260507084403 55 51 1.0 2.0 0.00 0.00 0.00 99 1011.6
20260507084303 55 56 1.0 2.0 0.00 0.00 0.00 99 1011.8
20260507084203 55 55 1.0 2.0 0.00 0.00 0.00 99 1011.9
20260507084103 54 56 1.0 2.0 0.00 0.00 0.00 99 1011.7
20260507084003 54 54 1.0 2.0 0.00 0.00 0.00 99 1011.8
20260507083903 54 53 1.0 2.0 0.00 0.00 0.00 99 1011.9
20260507083803 53 53 1.0 2.0 0.00 0.00 0.00 99 1011.6
20260507083703 53 54 1.0 2.0 0.00 0.00 0.00 99 1011.8
20260507083624 53 54 1.0 2.0 0.00 0.00 0.00 99 1011.8
20260507083503 53 51 1.0 2.0 0.00 0.00 0.00 99 1011.7
20260507083403 54 49 0.0 2.0 0.00 0.00 0.00 99 1011.8
20260507083303 54 47 0.0 1.0 0.00 0.00 0.00 99 1011.7
20260507083203 54 49 0.0 2.0 0.00 0.00 0.00 99 1011.6
20260507083103 54 47 0.0 2.0 0.00 0.00 0.00 99 1011.8
20260507083003 54 48 0.0 2.0 0.00 0.00 0.00 99 1011.7
20260507082903 54 48 0.0 2.0 0.00 0.00 0.00 99 1011.7
20260507082824 54 48 0.0 2.0 0.00 0.00 0.00 99 1011.7
20260507082703 54 48 0.0 2.0 0.00 0.00 0.00 99 1011.7
20260507082603 54 48 0.0 2.0 0.00 0.00 0.00 99 1011.8
20260507082503 54 48 0.0 2.0 0.00 0.00 0.00 99 1011.7
20260507082403 54 48 0.0 2.0 0.00 0.00 0.00 99 1011.7
20260507082306 54 48 0.0 2.0 0.00 0.00 0.00 99 1011.7
20260507082203 55 47 0.0 2.0 0.00 0.00 0.00 99 1011.7
20260507082103 55 45 0.0 2.0 0.00 0.00 0.00 99 1011.8
20260507082024 54 45 0.0 2.0 0.00 0.00 0.00 99 1011.8
20260507081924 55 45 0.0 2.0 0.00 0.00 0.00 99 1011.9
20260507081803 55 46 0.0 2.0 0.00 0.00 0.00 99 1012.0
20260507081703 54 44 0.0 1.0 0.00 0.00 0.00 99 1012.0
20260507081624 54 44 0.0 1.0 0.00 0.00 0.00 99 1012.0
20260507081503 52 42 0.0 1.0 0.00 0.00 0.00 99 1011.9
20260507081403 52 40 0.0 1.0 0.00 0.00 0.00 99 1012.0
20260507081303 52 40 0.0 1.0 0.00 0.00 0.00 99 1012.0
20260507081203 52 48 0.0 2.0 0.00 0.00 0.00 99 1012.0
20260507081103 52 48 0.0 2.0 0.00 0.00 0.00 99 1012.0
20260507081024 52 49 0.0 2.0 0.00 0.00 0.00 99 1012.0
20260507080903 51 50 0.0 2.0 0.00 0.00 0.00 99 1011.9
20260507080803 51 50 0.0 2.0 0.00 0.00 0.00 99 1012.0
20260507080703 51 50 0.0 2.0 0.00 0.00 0.00 99 1012.0
20260507080603 51 50 0.0 2.0 0.00 0.00 0.00 99 1012.0
20260507080524 51 50 0.0 2.0 0.00 0.00 0.00 99 1011.9
20260507080403 51 47 0.0 2.0 0.00 0.00 0.00 99 1012.0
20260507080303 51 48 0.0 2.0 0.00 0.00 0.00 99 1012.0
20260507080203 52 48 0.0 2.0 0.00 0.00 0.00 99 1012.1
20260507080103 52 38 0.0 1.0 0.00 0.00 0.00 99 1012.1
20260507080003 52 40 0.0 1.0 0.00 0.00 0.00 99 1012.1
20260507075924 52 40 0.0 1.0 0.00 0.00 0.00 99 1012.1
20260507075803 51 46 1.0 2.0 0.00 0.00 0.00 99 1012.1
20260507075703 51 49 1.0 2.0 0.00 0.00 0.00 99 1012.0
20260507075603 51 51 1.0 2.0 0.00 0.00 0.00 99 1011.9
20260507075503 51 53 1.0 2.0 0.00 0.00 0.00 99 1012.1
20260507075403 51 55 1.0 2.0 0.00 0.00 0.00 99 1012.2
20260507075324 51 55 1.0 2.0 0.00 0.00 0.00 99 1012.2
20260507075203 50 58 1.0 2.0 0.00 0.00 0.00 99 1011.8
20260507075103 50 56 1.0 2.0 0.00 0.00 0.00 99 1012.1
20260507075024 50 60 1.0 2.0 0.00 0.00 0.00 99 1012.0
20260507074903 50 62 1.0 2.0 0.00 0.00 0.00 99 1012.1
20260507074803 50 61 1.0 2.0 0.00 0.00 0.00 99 1012.2
20260507074703 50 62 1.0 2.0 0.00 0.00 0.00 99 1012.1
20260507074624 49 62 1.0 2.0 0.00 0.00 0.00 99 1012.1
20260507074503 49 60 1.0 2.0 0.00 0.00 0.00 99 1012.1
20260507074424 49 59 1.0 2.0 0.00 0.00 0.00 99 1012.1
20260507074303 49 59 1.0 2.0 0.00 0.00 0.00 99 1012.2
20260507074203 49 61 1.0 3.0 0.00 0.00 0.00 99 1012.2
20260507074124 49 62 1.0 3.0 0.00 0.00 0.00 99 1012.1
20260507074003 49 59 1.0 3.0 0.00 0.00 0.00 99 1012.2
20260507073903 49 57 1.0 3.0 0.00 0.00 0.00 99 1012.0
20260507073803 49 57 1.0 3.0 0.00 0.00 0.00 99 1012.1
20260507073724 49 57 1.0 3.0 0.00 0.00 0.00 99 1012.1
20260507073603 50 55 1.0 3.0 0.00 0.00 0.00 99 1012.0
20260507073524 50 55 1.0 3.0 0.00 0.00 0.00 99 1012.1
20260507073403 50 55 1.0 3.0 0.00 0.00 0.00 99 1012.2
20260507073303 50 55 1.0 3.0 0.00 0.00 0.00 99 1012.0
20260507073203 50 55 1.0 3.0 0.00 0.00 0.00 99 1012.0
20260507073103 50 54 1.0 3.0 0.00 0.00 0.00 99 1012.1
20260507073003 49 57 1.0 3.0 0.00 0.00 0.00 99 1012.2
20260507072903 49 56 2.0 3.0 0.00 0.00 0.00 99 1012.0
20260507072803 49 55 1.0 3.0 0.00 0.00 0.00 99 1012.0
20260507072703 49 55 1.0 3.0 0.00 0.00 0.00 99 1012.3
20260507072603 49 56 1.0 3.0 0.00 0.00 0.00 99 1012.1
20260507072503 49 56 1.0 3.0 0.00 0.00 0.00 99 1012.2
20260507072403 49 57 1.0 3.0 0.00 0.00 0.00 99 1012.2
20260507072306 49 62 2.0 3.0 0.00 0.00 0.00 99 1012.1
20260507072203 49 62 2.0 3.0 0.00 0.00 0.00 99 1012.0
20260507072103 49 61 2.0 3.0 0.00 0.00 0.00 99 1012.1
20260507072003 49 58 2.0 3.0 0.00 0.00 0.00 99 1012.2
20260507071903 49 58 2.0 3.0 0.00 0.00 0.00 99 1012.2
20260507071824 48 59 1.0 3.0 0.00 0.00 0.00 99 1012.2
20260507071703 48 60 1.0 3.0 0.00 0.00 0.00 99 1012.1
20260507071604 48 60 1.0 3.0 0.00 0.00 0.00 99 1012.1
20260507071503 48 60 1.0 3.0 0.00 0.00 0.00 99 1012.2
20260507071424 48 60 1.0 3.0 0.00 0.00 0.00 99 1012.3
20260507071303 48 61 1.0 3.0 0.00 0.00 0.00 99 1012.2
20260507071203 48 53 1.0 2.0 0.00 0.00 0.00 99 1012.4
20260507071103 48 52 1.0 2.0 0.00 0.00 0.00 99 1012.2
20260507071003 48 56 1.0 2.0 0.00 0.00 0.00 99 1012.1
20260507070903 48 57 1.0 2.0 0.00 0.00 0.00 99 1012.2
20260507070803 48 59 1.0 2.0 0.00 0.00 0.00 99 1012.3
20260507070703 48 60 1.0 2.0 0.00 0.00 0.00 99 1012.2
20260507070603 48 63 1.0 3.0 0.00 0.00 0.00 99 1012.2
20260507070503 48 63 1.0 3.0 0.00 0.00 0.00 99 1012.3
20260507070424 48 63 1.0 3.0 0.00 0.00 0.00 99 1012.3
20260507070303 48 68 2.0 3.0 0.00 0.00 0.00 99 1012.3
20260507070203 48 69 2.0 3.0 0.00 0.00 0.00 99 1012.3
20260507070103 48 70 2.0 3.0 0.00 0.00 0.00 99 1012.2
20260507070004 48 70 2.0 3.0 0.00 0.00 0.00 99 1012.2
20260507065903 48 67 2.0 3.0 0.00 0.00 0.00 99 1012.3
20260507065824 48 67 1.0 3.0 0.00 0.00 0.00 99 1012.1
20260507065724 48 67 1.0 3.0 0.00 0.00 0.00 99 1012.4
20260507065603 48 67 1.0 3.0 0.00 0.00 0.00 99 1012.4
20260507065503 48 65 1.0 3.0 0.00 0.00 0.00 99 1012.3
20260507065424 48 63 1.0 3.0 0.00 0.00 0.00 99 1012.3
20260507065305 48 61 1.0 3.0 0.00 0.00 0.00 99 1012.2
20260507065224 48 53 1.0 2.0 0.00 0.00 0.00 99 1012.2
20260507065124 48 52 1.0 2.0 0.00 0.00 0.00 99 1012.2
20260507065024 48 53 1.0 2.0 0.00 0.00 0.00 99 1012.2
20260507064924 48 53 1.0 2.0 0.00 0.00 0.00 99 1012.2
20260507064803 48 56 1.0 2.0 0.00 0.00 0.00 99 1012.0
20260507064703 48 56 1.0 2.0 0.00 0.00 0.00 99 1012.0
20260507064603 48 56 1.0 2.0 0.00 0.00 0.00 99 1012.0
20260507064503 48 56 1.0 2.0 0.00 0.00 0.00 99 1012.2
20260507064403 48 57 2.0 2.0 0.00 0.00 0.00 99 1012.2
20260507064303 48 57 2.0 2.0 0.00 0.00 0.00 99 1012.2
20260507064224 48 57 2.0 2.0 0.00 0.00 0.00 99 1012.4
20260507064103 48 58 1.0 2.0 0.00 0.00 0.00 99 1012.1
20260507064003 48 58 1.0 2.0 0.00 0.00 0.00 99 1012.2
20260507063903 48 58 1.0 2.0 0.00 0.00 0.00 99 1012.1
20260507063803 48 57 1.0 2.0 0.00 0.00 0.00 99 1012.2
20260507063703 48 54 1.0 2.0 0.00 0.00 0.00 99 1012.4
20260507063603 48 53 1.0 2.0 0.00 0.00 0.00 99 1012.2
20260507063503 48 53 1.0 2.0 0.00 0.00 0.00 99 1012.3
20260507063403 48 52 1.0 2.0 0.00 0.00 0.00 99 1012.2
20260507063303 48 54 1.0 2.0 0.00 0.00 0.00 99 1012.2
20260507063203 48 56 1.0 3.0 0.00 0.00 0.00 99 1012.3
20260507063103 47 56 1.0 3.0 0.00 0.00 0.00 99 1012.4
20260507063003 47 55 1.0 3.0 0.00 0.00 0.00 99 1012.2
20260507062903 47 56 1.0 3.0 0.00 0.00 0.00 99 1012.4
20260507062803 47 56 1.0 3.0 0.00 0.00 0.00 99 1012.3
20260507062703 47 56 1.0 3.0 0.00 0.00 0.00 99 1012.3
20260507062604 47 56 1.0 3.0 0.00 0.00 0.00 99 1012.3
20260507062503 47 55 1.0 3.0 0.00 0.00 0.00 99 1012.2
20260507062403 47 55 1.0 3.0 0.00 0.00 0.00 99 1012.4
20260507062306 47 54 1.0 3.0 0.00 0.00 0.00 99 1012.4
20260507062203 47 51 1.0 3.0 0.00 0.00 0.00 99 1012.6
20260507062124 47 48 1.0 2.0 0.00 0.00 0.00 99 1012.4
20260507062003 47 48 1.0 2.0 0.00 0.00 0.00 99 1012.5
20260507061903 47 49 1.0 2.0 0.00 0.00 0.00 99 1012.3
20260507061824 47 46 1.0 2.0 0.00 0.00 0.00 99 1012.3
20260507061703 47 46 0.0 1.0 0.00 0.00 0.00 99 1012.2
20260507061603 47 46 0.0 1.0 0.00 0.00 0.00 99 1012.1
20260507061525 47 46 0.0 1.0 0.00 0.00 0.00 99 1012.1
20260507061404 47 45 0.0 1.0 0.00 0.00 0.00 99 1012.4
20260507061303 47 46 0.0 1.0 0.00 0.00 0.00 99 1012.3
20260507061203 47 48 0.0 2.0 0.00 0.00 0.00 99 1012.2
20260507061124 47 48 0.0 2.0 0.00 0.00 0.00 99 1012.2
20260507061003 47 48 0.0 2.0 0.00 0.00 0.00 99 1012.3
20260507060924 47 49 0.0 2.0 0.00 0.00 0.00 99 1012.3
20260507060803 47 48 1.0 2.0 0.00 0.00 0.00 99 1012.2
20260507060703 47 49 1.0 2.0 0.00 0.00 0.00 99 1012.2
20260507060603 47 49 1.0 2.0 0.00 0.00 0.00 99 1012.2
20260507060503 47 49 1.0 2.0 0.00 0.00 0.00 99 1012.2
20260507060403 47 50 1.0 2.0 0.00 0.00 0.00 99 1012.5
20260507060303 47 50 1.0 2.0 0.00 0.00 0.00 99 1012.4
20260507060203 47 50 1.0 2.0 0.00 0.00 0.00 99 1012.4
20260507060003 46 48 1.0 2.0 0.00 0.00 0.00 99 1012.4
20260507055903 46 48 1.0 2.0 0.00 0.00 0.00 99 1012.5
20260507055803 46 48 1.0 2.0 0.00 0.00 0.00 99 1012.5
20260507055703 46 48 1.0 2.0 0.00 0.00 0.00 99 1012.4
20260507055603 46 48 1.0 2.0 0.00 0.00 0.00 99 1012.3
20260507055503 46 48 1.0 2.0 0.00 0.00 0.00 99 1012.3
20260507055403 46 48 1.0 2.0 0.00 0.00 0.00 99 1012.3
20260507055324 46 49 1.0 2.0 0.00 0.00 0.00 99 1012.2
20260507055203 46 49 1.0 2.0 0.00 0.00 0.00 99 1012.4
20260507055124 46 49 1.0 2.0 0.00 0.00 0.00 99 1012.5
20260507055003 46 51 1.0 2.0 0.00 0.00 0.00 99 1012.3
20260507054903 46 53 1.0 2.0 0.00 0.00 0.00 99 1012.4
20260507054803 46 53 1.0 2.0 0.00 0.00 0.00 99 1012.4
20260507054703 46 54 1.0 2.0 0.00 0.00 0.00 99 1012.2
20260507054603 46 54 1.0 2.0 0.00 0.00 0.00 99 1012.5
20260507054503 46 54 1.0 2.0 0.00 0.00 0.00 99 1012.5
20260507054424 46 54 1.0 2.0 0.00 0.00 0.00 99 1012.5
20260507054303 46 54 1.0 2.0 0.00 0.00 0.00 99 1012.3
20260507054203 46 54 0.0 2.0 0.00 0.00 0.00 99 1012.2
20260507054103 46 54 0.0 2.0 0.00 0.00 0.00 99 1012.2
20260507054003 46 54 0.0 2.0 0.00 0.00 0.00 99 1012.4
20260507053903 46 52 0.0 2.0 0.00 0.00 0.00 99 1012.3
20260507053803 46 49 0.0 1.0 0.00 0.00 0.00 99 1012.4
20260507053704 46 46 0.0 1.0 0.00 0.00 0.00 99 1012.3
20260507053603 46 42 0.0 1.0 0.00 0.00 0.00 99 1012.2
20260507053503 46 0 0.0 0.0 0.00 0.00 0.00 99 1012.2
20260507053424 46 0 0.0 0.0 0.00 0.00 0.00 99 1012.4
20260507053303 46 0 0.0 0.0 0.00 0.00 0.00 99 1012.4
20260507053204 46 0 0.0 0.0 0.00 0.00 0.00 99 1012.3
20260507053103 46 0 0.0 0.0 0.00 0.00 0.00 99 1012.4
20260507053003 46 0 0.0 0.0 0.00 0.00 0.00 99 1012.3
20260507052903 46 0 0.0 0.0 0.00 0.00 0.00 99 1012.2
20260507052803 46 0 0.0 0.0 0.00 0.00 0.00 99 1012.3
20260507052703 46 0 0.0 0.0 0.00 0.00 0.00 99 1012.2
20260507052603 46 0 0.0 0.0 0.00 0.00 0.00 99 1012.2
20260507052503 46 0 0.0 0.0 0.00 0.00 0.00 99 1012.2
20260507052403 46 0 0.0 0.0 0.00 0.00 0.00 99 1012.2
20260507052306 46 0 0.0 0.0 0.00 0.00 0.00 99 1012.2
20260507052224 46 0 0.0 0.0 0.00 0.00 0.00 99 1012.2
20260507052103 46 0 0.0 0.0 0.00 0.00 0.00 99 1012.4
20260507052003 46 0 0.0 0.0 0.00 0.00 0.00 99 1012.4
20260507051904 46 0 0.0 0.0 0.00 0.00 0.00 99 1012.2
20260507051824 46 0 0.0 0.0 0.00 0.00 0.00 99 1012.3
20260507051724 46 0 0.0 0.0 0.00 0.00 0.00 99 1012.2
20260507051624 46 0 0.0 0.0 0.00 0.00 0.00 99 1012.3
20260507051503 46 0 0.0 0.0 0.00 0.00 0.00 99 1012.5
20260507051403 46 0 0.0 0.0 0.00 0.00 0.00 99 1012.2
20260507051324 46 0 0.0 0.0 0.00 0.00 0.00 99 1012.3
20260507051224 46 0 0.0 0.0 0.00 0.00 0.00 99 1012.3
20260507051103 46 42 0.0 1.0 0.00 0.00 0.00 99 1012.3
20260507051024 46 42 0.0 1.0 0.00 0.00 0.00 99 1012.3
20260507050903 46 42 0.0 1.0 0.00 0.00 0.00 99 1012.4
20260507050825 46 42 0.0 1.0 0.00 0.00 0.00 99 1012.4
20260507050703 46 42 0.0 1.0 0.00 0.00 0.00 99 1012.4
20260507050603 46 42 0.0 1.0 0.00 0.00 0.00 99 1012.4
20260507050503 46 42 0.0 1.0 0.00 0.00 0.00 99 1012.3
20260507050424 46 42 0.0 1.0 0.00 0.00 0.00 99 1012.3
20260507050303 46 42 0.0 1.0 0.00 0.00 0.00 99 1012.5
20260507050203 46 42 0.0 1.0 0.00 0.00 0.00 99 1012.4
20260507050103 46 42 0.0 1.0 0.00 0.00 0.00 99 1012.5
20260507050003 46 42 0.0 1.0 0.00 0.00 0.00 99 1012.4
20260507045903 46 42 0.0 1.0 0.00 0.00 0.00 99 1012.3
20260507045803 46 42 0.0 1.0 0.00 0.00 0.00 99 1012.4
20260507045703 46 42 0.0 1.0 0.00 0.00 0.00 99 1012.5
20260507045603 46 42 0.0 1.0 0.00 0.00 0.00 99 1012.3
20260507045524 46 42 0.0 1.0 0.00 0.00 0.00 99 1012.3
20260507045424 46 42 0.0 1.0 0.00 0.00 0.00 99 1012.3
20260507045324 46 42 0.0 1.0 0.00 0.00 0.00 99 1012.4
20260507045203 46 42 0.0 1.0 0.00 0.00 0.00 99 1012.4
20260507045103 46 43 0.0 1.0 0.00 0.00 0.00 99 1012.4
20260507045003 46 43 0.0 1.0 0.00 0.00 0.00 99 1012.5
20260507044903 46 43 0.0 1.0 0.00 0.00 0.00 99 1012.7
20260507044803 46 43 0.0 1.0 0.00 0.00 0.00 99 1012.7
20260507044703 46 42 0.0 1.0 0.00 0.00 0.00 99 1012.6
20260507044603 46 42 0.0 1.0 0.00 0.00 0.00 99 1012.5
20260507044503 46 42 0.0 1.0 0.00 0.00 0.00 99 1012.4
20260507044424 46 0 0.0 0.0 0.00 0.00 0.00 99 1012.4
20260507044303 46 0 0.0 0.0 0.00 0.00 0.00 99 1012.4
20260507044203 46 0 0.0 0.0 0.00 0.00 0.00 99 1012.6
20260507044103 46 0 0.0 0.0 0.00 0.00 0.00 99 1012.6
20260507044003 46 0 0.0 0.0 0.00 0.00 0.00 99 1012.4
20260507043903 46 0 0.0 0.0 0.00 0.00 0.00 99 1012.5
20260507043803 46 0 0.0 0.0 0.00 0.00 0.00 99 1012.5
20260507043703 46 0 0.0 0.0 0.00 0.00 0.00 99 1012.5
20260507043624 46 0 0.0 0.0 0.00 0.00 0.00 99 1012.6
20260507043524 46 0 0.0 0.0 0.00 0.00 0.00 99 1012.6
20260507043403 46 0 0.0 0.0 0.00 0.00 0.00 99 1012.6
20260507043324 46 0 0.0 0.0 0.00 0.00 0.00 99 1012.6
20260507043203 46 0 0.0 0.0 0.00 0.00 0.00 99 1012.6
20260507043103 46 0 0.0 0.0 0.00 0.00 0.00 99 1012.6
20260507043003 46 0 0.0 0.0 0.00 0.00 0.00 99 1012.7
20260507042903 46 0 0.0 0.0 0.00 0.00 0.00 99 1012.5
20260507042803 46 0 0.0 0.0 0.00 0.00 0.00 99 1012.5
20260507042703 46 0 0.0 0.0 0.00 0.00 0.00 99 1012.8
20260507042603 46 0 0.0 0.0 0.00 0.00 0.00 99 1012.8
20260507042503 46 0 0.0 0.0 0.00 0.00 0.00 99 1012.5
20260507042403 46 0 0.0 0.0 0.00 0.00 0.00 99 1012.4
20260507042306 46 0 0.0 0.0 0.00 0.00 0.00 99 1012.6
20260507042203 46 0 0.0 0.0 0.00 0.00 0.00 99 1012.7
20260507042103 46 0 0.0 0.0 0.00 0.00 0.00 99 1012.6
20260507042003 46 0 0.0 0.0 0.00 0.00 0.00 99 1012.7
20260507041903 46 0 0.0 0.0 0.00 0.00 0.00 99 1012.6
20260507041824 46 0 0.0 0.0 0.00 0.00 0.00 99 1012.6
20260507041703 46 0 0.0 0.0 0.00 0.00 0.00 99 1012.8
20260507041603 46 0 0.0 0.0 0.00 0.00 0.00 99 1012.8
20260507041503 46 0 0.0 0.0 0.00 0.00 0.00 99 1012.6
20260507041424 46 0 0.0 0.0 0.00 0.00 0.00 99 1012.8
20260507041303 46 0 0.0 0.0 0.00 0.00 0.00 99 1013.0
20260507041203 46 0 0.0 0.0 0.00 0.00 0.00 99 1012.9
20260507041124 46 0 0.0 0.0 0.00 0.00 0.00 99 1012.7
20260507041024 46 43 0.0 1.0 0.00 0.00 0.00 99 1012.8
20260507040903 46 51 0.0 2.0 0.00 0.00 0.00 99 1012.8
20260507040803 46 49 0.0 2.0 0.00 0.00 0.00 99 1012.9
20260507040703 46 56 0.0 2.0 0.00 0.00 0.00 99 1012.9
20260507040603 46 53 0.0 2.0 0.00 0.00 0.00 99 1012.9
20260507040503 46 53 0.0 2.0 0.00 0.00 0.00 99 1012.7
20260507040403 46 52 1.0 2.0 0.00 0.00 0.00 99 1012.7
20260507040303 46 52 1.0 2.0 0.00 0.00 0.00 99 1012.7
20260507040224 46 52 1.0 2.0 0.00 0.00 0.00 99 1012.7
20260507040103 46 51 1.0 2.0 0.00 0.00 0.00 99 1012.9
20260507040003 46 52 1.0 2.0 0.00 0.00 0.00 99 1012.9
20260507035924 46 52 1.0 2.0 0.00 0.00 0.00 99 1012.9
20260507035803 46 50 1.0 2.0 0.00 0.00 0.00 99 1012.7
20260507035724 46 51 1.0 2.0 0.00 0.00 0.00 99 1012.8
20260507035603 46 45 1.0 2.0 0.00 0.00 0.00 99 1012.8
20260507035524 46 46 1.0 1.0 0.00 0.00 0.00 99 1013.0
20260507035403 46 46 1.0 1.0 0.00 0.00 0.00 99 1012.8
20260507035306 46 45 0.0 1.0 0.00 0.00 0.00 99 1012.7
20260507035203 46 44 0.0 1.0 0.00 0.00 0.00 99 1012.9
20260507035124 46 44 0.0 1.0 0.00 0.00 0.00 99 1012.8
20260507035003 46 44 0.0 1.0 0.00 0.00 0.00 99 1012.6
20260507034903 46 44 0.0 1.0 0.00 0.00 0.00 99 1012.8
20260507034803 46 45 0.0 1.0 0.00 0.00 0.00 99 1012.7
20260507034703 46 45 0.0 1.0 0.00 0.00 0.00 99 1012.8
20260507034603 46 46 0.0 1.0 0.00 0.00 0.00 99 1012.8
20260507034503 46 46 0.0 1.0 0.00 0.00 0.00 99 1012.7
20260507034404 46 46 0.0 1.0 0.00 0.00 0.00 99 1012.8
20260507034303 46 46 0.0 1.0 0.00 0.00 0.00 99 1012.8
20260507034203 46 46 0.0 1.0 0.00 0.00 0.00 99 1013.1
20260507034124 46 45 0.0 1.0 0.00 0.00 0.00 99 1013.0
20260507034024 46 46 1.0 1.0 0.00 0.00 0.00 99 1012.8
20260507033903 46 46 1.0 1.0 0.00 0.00 0.00 99 1013.0
20260507033803 46 46 1.0 1.0 0.00 0.00 0.00 99 1012.9
20260507033703 46 46 1.0 2.0 0.00 0.00 0.00 99 1013.0
20260507033603 46 46 1.0 2.0 0.00 0.00 0.00 99 1012.7
20260507033503 46 46 1.0 2.0 0.00 0.00 0.00 99 1012.9
20260507033403 46 46 1.0 2.0 0.00 0.00 0.00 99 1013.0
20260507033303 46 46 1.0 2.0 0.00 0.00 0.00 99 1012.9
20260507033203 46 46 1.0 2.0 0.00 0.00 0.00 99 1013.0
20260507033103 46 46 1.0 2.0 0.00 0.00 0.00 99 1013.2
20260507033003 46 46 1.0 2.0 0.00 0.00 0.00 99 1013.1
20260507032903 46 46 1.0 2.0 0.00 0.00 0.00 99 1012.9
20260507032803 46 46 1.0 2.0 0.00 0.00 0.00 99 1012.9
20260507032703 46 46 1.0 2.0 0.00 0.00 0.00 99 1012.9
20260507032603 46 45 1.0 2.0 0.00 0.00 0.00 99 1013.0
20260507032524 46 45 1.0 2.0 0.00 0.00 0.00 99 1012.7
20260507032424 46 45 1.0 2.0 0.00 0.00 0.00 99 1012.9
20260507032305 46 46 1.0 2.0 0.00 0.00 0.00 99 1012.9
20260507032224 46 45 1.0 1.0 0.00 0.00 0.00 99 1012.8
20260507032103 46 45 1.0 1.0 0.00 0.00 0.00 99 1012.9
20260507032003 46 44 1.0 1.0 0.00 0.00 0.00 99 1012.8
20260507031903 46 44 1.0 1.0 0.00 0.00 0.00 99 1012.8
20260507031803 46 44 1.0 1.0 0.00 0.00 0.00 99 1012.7
20260507031703 46 44 1.0 1.0 0.00 0.00 0.00 99 1012.9
20260507031624 46 44 1.0 1.0 0.00 0.00 0.00 99 1012.8
20260507031524 46 45 1.0 1.0 0.00 0.00 0.00 99 1012.8
20260507031403 46 45 1.0 1.0 0.00 0.00 0.00 99 1012.8
20260507031303 46 45 1.0 1.0 0.00 0.00 0.00 99 1012.7
20260507031203 46 45 1.0 1.0 0.00 0.00 0.00 99 1013.0
20260507031103 46 45 1.0 1.0 0.00 0.00 0.00 99 1012.8
20260507031004 46 45 1.0 1.0 0.00 0.00 0.00 99 1012.8
20260507030924 46 45 1.0 1.0 0.00 0.00 0.00 99 1012.8
20260507030803 46 45 1.0 1.0 0.00 0.00 0.00 99 1012.8
20260507030703 46 45 1.0 1.0 0.00 0.00 0.00 99 1013.0
20260507030603 46 45 1.0 1.0 0.00 0.00 0.00 99 1013.0
20260507030503 46 45 1.0 1.0 0.00 0.00 0.00 99 1012.7
20260507030403 46 45 1.0 1.0 0.00 0.00 0.00 99 1012.9
20260507030324 46 45 1.0 1.0 0.00 0.00 0.00 99 1012.7
20260507030224 46 44 0.0 1.0 0.00 0.00 0.00 99 1012.6
20260507030125 46 44 0.0 1.0 0.00 0.00 0.00 99 1012.8
20260507030003 46 44 0.0 1.0 0.00 0.00 0.00 99 1012.8
20260507025924 46 45 0.0 1.0 0.00 0.00 0.00 99 1012.9
20260507025803 46 45 0.0 1.0 0.00 0.00 0.00 99 1012.8
20260507025703 46 46 0.0 1.0 0.00 0.00 0.00 99 1012.8
20260507025624 46 46 0.0 1.0 0.00 0.00 0.00 99 1012.8
20260507025503 46 0 0.0 0.0 0.00 0.00 0.00 99 1012.9
20260507025404 46 0 0.0 0.0 0.00 0.00 0.00 99 1012.7
20260507025306 46 0 0.0 0.0 0.00 0.00 0.00 99 1013.0
20260507025203 46 42 0.0 1.0 0.00 0.00 0.00 99 1012.9
20260507025103 46 42 0.0 1.0 0.00 0.00 0.00 99 1012.8
20260507025004 46 42 0.0 1.0 0.00 0.00 0.00 99 1013.0
20260507024924 46 42 0.0 1.0 0.00 0.00 0.00 99 1013.0
20260507024803 46 42 0.0 1.0 0.00 0.00 0.00 99 1012.8
20260507024703 46 42 0.0 1.0 0.00 0.00 0.00 99 1012.8
20260507024603 46 43 0.0 1.0 0.00 0.00 0.00 99 1012.8
20260507024503 46 42 0.0 1.0 0.00 0.00 0.00 99 1012.8
20260507024403 46 42 0.0 1.0 0.00 0.00 0.00 99 1012.9
20260507024303 46 42 0.0 1.0 0.00 0.00 0.00 99 1012.8
20260507024203 46 43 0.0 1.0 0.00 0.00 0.00 99 1012.9
20260507024103 46 44 0.0 2.0 0.00 0.00 0.00 99 1012.8
20260507024003 46 44 0.0 2.0 0.00 0.00 0.00 99 1012.9
20260507023903 46 45 1.0 2.0 0.00 0.00 0.00 99 1012.8
20260507023803 46 45 1.0 2.0 0.00 0.00 0.00 99 1013.0
20260507023724 46 45 1.0 2.0 0.00 0.00 0.00 99 1013.0
20260507023603 46 45 1.0 2.0 0.00 0.00 0.00 99 1013.0
20260507023503 46 45 1.0 2.0 0.00 0.00 0.00 99 1013.0
20260507023403 46 45 1.0 2.0 0.00 0.00 0.00 99 1012.9
20260507023303 46 45 1.0 2.0 0.00 0.00 0.00 99 1013.2
20260507023203 46 45 1.0 2.0 0.00 0.00 0.00 99 1013.2
20260507023103 46 45 0.0 2.0 0.00 0.00 0.00 99 1013.0
20260507023003 46 45 0.0 1.0 0.00 0.00 0.00 99 1013.0
20260507022904 46 45 0.0 1.0 0.00 0.00 0.00 99 1013.1
20260507022803 46 45 0.0 1.0 0.00 0.01 0.00 99 1013.1
20260507022724 46 45 0.0 1.0 0.00 0.01 0.00 99 1013.0
20260507022603 46 45 0.0 1.0 0.00 0.01 0.00 99 1013.0
20260507022503 46 45 0.0 1.0 0.00 0.01 0.00 99 1013.0
20260507022403 46 46 0.0 1.0 0.00 0.01 0.00 99 1013.0
20260507022306 46 46 0.0 1.0 0.00 0.01 0.00 99 1012.9
20260507022203 46 46 0.0 1.0 0.00 0.01 0.00 99 1012.9
20260507022104 46 48 0.0 1.0 0.00 0.01 0.00 99 1012.9
20260507022003 46 0 0.0 0.0 0.00 0.02 0.00 99 1013.1
20260507021903 46 0 0.0 0.0 0.00 0.02 0.00 99 1013.2
20260507021824 46 0 0.0 0.0 0.00 0.02 0.00 99 1013.2
20260507021724 46 0 0.0 0.0 0.00 0.02 0.00 99 1012.9
20260507021603 46 0 0.0 0.0 0.00 0.02 0.00 99 1012.9
20260507021503 46 0 0.0 0.0 0.00 0.02 0.00 99 1012.9
20260507021404 46 0 0.0 0.0 0.00 0.03 0.00 99 1013.1
20260507021303 46 0 0.0 0.0 0.00 0.03 0.00 99 1013.0
20260507021203 46 0 0.0 0.0 0.00 0.03 0.00 99 1013.0
20260507021103 46 0 0.0 0.0 0.00 0.03 0.00 99 1013.0
20260507021003 46 0 0.0 0.0 0.00 0.03 0.00 99 1013.1
20260507020903 46 0 0.0 0.0 0.00 0.03 0.00 99 1012.9
20260507020803 46 0 0.0 0.0 0.00 0.03 0.00 99 1013.1
20260507020703 46 0 0.0 0.0 0.00 0.03 0.00 98 1013.0
20260507020603 46 0 0.0 0.0 0.00 0.03 0.00 99 1013.0
20260507020503 46 0 0.0 0.0 0.00 0.03 0.00 99 1013.1
20260507020424 46 0 0.0 0.0 0.00 0.04 0.00 99 1013.1
20260507020303 46 0 0.0 0.0 0.00 0.04 0.00 99 1013.0
20260507020203 46 0 0.0 0.0 0.00 0.04 0.00 98 1013.1
20260507020024 46 50 0.0 2.0 0.00 0.04 0.00 98 1013.0
20260507015903 46 50 0.0 2.0 0.00 0.04 0.00 98 1013.1
20260507015825 46 50 0.0 2.0 0.00 0.04 0.00 98 1013.1
20260507015703 47 48 0.0 2.0 0.00 0.04 0.00 98 1013.1
20260507015603 47 47 0.0 2.0 0.00 0.05 0.00 98 1013.1
20260507015504 47 47 0.0 2.0 0.00 0.05 0.00 98 1013.1
20260507015403 47 47 0.0 2.0 0.00 0.06 0.00 98 1013.2
20260507015324 47 47 1.0 2.0 0.00 0.06 0.00 98 1013.3
20260507015203 47 47 1.0 2.0 0.00 0.06 0.00 98 1013.3
20260507015103 47 47 1.0 2.0 0.00 0.06 0.00 98 1013.2
20260507015003 47 46 1.0 1.0 0.00 0.07 0.00 98 1013.3
20260507014903 47 45 0.0 1.0 0.00 0.07 0.00 98 1013.3
20260507014803 47 45 0.0 1.0 0.00 0.07 0.00 98 1013.2
20260507014703 47 46 0.0 1.0 0.00 0.07 0.00 98 1013.4
20260507014603 47 45 0.0 1.0 0.00 0.07 0.00 98 1013.2
20260507014503 47 46 0.0 1.0 0.00 0.07 0.00 98 1013.3
20260507014424 47 46 0.0 1.0 0.00 0.07 0.00 98 1013.3
20260507014324 47 45 0.0 1.0 0.00 0.07 0.00 98 1013.3
20260507014203 47 47 0.0 2.0 0.00 0.07 0.00 98 1013.1
20260507014103 47 47 1.0 2.0 0.00 0.07 0.00 98 1013.4
20260507014003 47 51 1.0 2.0 0.00 0.07 0.00 98 1013.5
20260507013903 47 52 1.0 2.0 0.00 0.07 0.00 98 1013.4
20260507013824 47 51 1.0 2.0 0.00 0.07 0.00 98 1013.4
20260507013703 47 51 1.0 2.0 0.00 0.07 0.00 98 1013.3
20260507013603 47 52 1.0 2.0 0.00 0.07 0.00 98 1013.3
20260507013503 47 52 1.0 2.0 0.00 0.07 0.00 98 1013.3
20260507013403 47 52 1.0 2.0 0.00 0.07 0.00 98 1013.2
20260507013303 47 52 1.0 2.0 0.00 0.07 0.00 98 1013.4
20260507013203 47 51 1.0 2.0 0.00 0.07 0.00 98 1013.3
20260507013124 47 51 1.0 2.0 0.00 0.07 0.00 98 1013.3
20260507013003 47 48 1.0 2.0 0.00 0.07 0.00 98 1013.5
20260507012903 47 49 1.0 2.0 0.00 0.07 0.00 98 1013.6
20260507012803 47 49 1.0 2.0 0.00 0.07 0.00 98 1013.5
20260507012703 47 48 1.0 2.0 0.00 0.07 0.00 98 1013.4
20260507012603 47 48 1.0 2.0 0.00 0.07 0.00 98 1013.4
20260507012503 47 48 1.0 2.0 0.00 0.07 0.00 98 1013.4
20260507012403 47 47 1.0 2.0 0.00 0.07 0.00 98 1013.4
20260507012306 47 47 1.0 2.0 0.00 0.07 0.00 98 1013.4
20260507012203 48 47 1.0 2.0 0.00 0.07 0.00 98 1013.4
20260507012103 48 48 1.0 2.0 0.00 0.07 0.00 98 1013.3
20260507012003 47 47 1.0 2.0 0.00 0.07 0.00 98 1013.5
20260507011903 47 46 1.0 2.0 0.00 0.07 0.00 98 1013.4
20260507011803 47 43 0.0 1.0 0.00 0.07 0.00 98 1013.4
20260507011724 47 43 0.0 1.0 0.00 0.07 0.00 98 1013.6
20260507011603 47 43 0.0 1.0 0.00 0.07 0.00 98 1013.4
20260507011503 47 43 0.0 1.0 0.00 0.07 0.00 98 1013.4
20260507011424 47 44 0.0 1.0 0.00 0.07 0.00 98 1013.5
20260507011303 47 43 1.0 1.0 0.00 0.07 0.00 98 1013.4
20260507011224 48 43 1.0 1.0 0.00 0.07 0.00 98 1013.6
20260507011124 48 43 1.0 1.0 0.00 0.07 0.00 98 1013.6
20260507011003 48 43 0.0 1.0 0.00 0.07 0.00 98 1013.6
20260507010904 48 42 0.0 1.0 0.00 0.07 0.00 98 1013.4
20260507010803 48 42 0.0 1.0 0.00 0.07 0.00 98 1013.4
20260507010724 48 42 0.0 1.0 0.00 0.07 0.00 98 1013.4
20260507010603 48 42 0.0 1.0 0.00 0.07 0.00 98 1013.4
20260507010503 48 42 0.0 1.0 0.00 0.07 0.00 98 1013.5
20260507010403 47 42 0.0 1.0 0.00 0.07 0.00 98 1013.4
20260507010303 47 40 0.0 1.0 0.00 0.07 0.00 98 1013.6
20260507010203 47 40 0.0 1.0 0.00 0.07 0.00 98 1013.4
20260507010024 47 0 0.0 0.0 0.00 0.07 0.00 98 1013.4
20260507005903 47 0 0.0 0.0 0.00 0.07 0.00 98 1013.2
20260507005803 47 0 0.0 0.0 0.00 0.07 0.00 98 1013.5
20260507005703 47 0 0.0 0.0 0.00 0.07 0.00 98 1013.4
20260507005603 47 0 0.0 0.0 0.00 0.07 0.00 98 1013.6
20260507005503 48 0 0.0 0.0 0.00 0.07 0.00 98 1013.6
20260507005403 48 0 0.0 0.0 0.00 0.07 0.00 98 1013.5
20260507005305 48 0 0.0 0.0 0.00 0.07 0.00 98 1013.6
20260507005203 48 0 0.0 0.0 0.00 0.07 0.00 98 1013.4
20260507005103 48 0 0.0 0.0 0.00 0.07 0.00 98 1013.4
20260507005003 48 0 0.0 0.0 0.00 0.07 0.00 98 1013.5
20260507004903 48 0 0.0 0.0 0.00 0.07 0.00 98 1013.8
20260507004803 48 0 0.0 0.0 0.00 0.07 0.00 98 1013.6
20260507004703 47 0 0.0 0.0 0.00 0.07 0.00 98 1013.5
20260507004603 47 0 0.0 0.0 0.00 0.07 0.00 98 1013.5
20260507004503 47 0 0.0 0.0 0.00 0.07 0.00 98 1013.7
20260507004403 48 0 0.0 0.0 0.00 0.07 0.00 98 1013.6
20260507004302 48 0 0.0 0.0 0.00 0.07 0.00 98 1013.6
20260507004202 48 0 0.0 0.0 0.00 0.07 0.00 98 1013.6
20260507004123 48 0 0.0 0.0 0.00 0.07 0.00 98 1013.6
20260507004003 48 0 0.0 0.0 0.00 0.07 0.00 98 1013.4
20260507003902 48 0 0.0 0.0 0.00 0.07 0.00 97 1013.6
20260507003803 48 0 0.0 0.0 0.00 0.07 0.00 97 1013.6
20260507003703 48 0 0.0 0.0 0.00 0.07 0.00 97 1013.6
20260507003603 48 0 0.0 0.0 0.00 0.07 0.00 97 1013.5
20260507003502 48 0 0.0 0.0 0.00 0.07 0.00 97 1013.7
20260507003402 48 0 0.0 0.0 0.00 0.07 0.00 97 1013.7
20260507003302 48 0 0.0 0.0 0.00 0.07 0.00 97 1013.6
20260507003203 48 0 0.0 0.0 0.00 0.07 0.00 97 1013.6
20260507003124 48 0 0.0 0.0 0.00 0.07 0.00 97 1013.5
20260507003003 48 0 0.0 0.0 0.00 0.07 0.00 97 1013.6
20260507002923 48 44 0.0 1.0 0.00 0.07 0.00 97 1013.7
20260507002803 48 44 0.0 1.0 0.00 0.07 0.00 97 1013.7
20260507002724 48 44 0.0 1.0 0.00 0.07 0.00 97 1013.5
20260507002602 48 44 0.0 1.0 0.00 0.07 0.00 97 1013.7
20260507002503 49 44 0.0 1.0 0.00 0.07 0.00 97 1013.6
20260507002402 49 45 0.0 1.0 0.00 0.07 0.00 97 1013.5
20260507002306 49 40 0.0 1.0 0.00 0.07 0.00 97 1013.8
20260507002223 49 40 0.0 1.0 0.00 0.07 0.00 97 1013.8
20260507002102 49 41 0.0 1.0 0.00 0.07 0.00 97 1013.6
20260507002002 49 51 1.0 2.0 0.00 0.07 0.00 97 1013.7
20260507001903 49 51 1.0 2.0 0.00 0.07 0.00 97 1013.7
20260507001803 49 51 1.0 2.0 0.00 0.07 0.00 97 1013.7
20260507001703 49 52 1.0 2.0 0.00 0.07 0.00 97 1013.8
20260507001602 49 51 1.0 2.0 0.00 0.07 0.00 97 1013.8
20260507001503 49 51 1.0 2.0 0.00 0.07 0.00 97 1013.8
20260507001403 49 50 1.0 2.0 0.00 0.07 0.00 97 1013.7
20260507001302 49 51 1.0 2.0 0.00 0.07 0.00 97 1013.8
20260507001203 49 51 1.0 2.0 0.00 0.07 0.00 97 1013.8
20260507001102 49 50 1.0 2.0 0.00 0.07 0.00 97 1013.8
20260507001024 49 50 1.0 2.0 0.00 0.07 0.00 97 1013.9
20260507000903 49 44 1.0 2.0 0.00 0.07 0.00 97 1013.9
20260507000802 49 43 1.0 2.0 0.00 0.07 0.00 97 1013.9
20260507000702 49 43 0.0 2.0 0.00 0.07 0.00 97 1013.9
20260507000603 49 41 0.0 2.0 0.00 0.07 0.00 97 1013.9
20260507000503 49 39 0.0 2.0 0.00 0.07 0.00 97 1013.9
20260507000423 49 39 0.0 2.0 0.00 0.07 0.00 97 1013.9
20260507000303 49 28 0.0 1.0 0.00 0.07 0.00 97 1013.9
20260507000204 49 28 0.0 1.0 0.00 0.07 0.00 97 1013.9
20260507000003 49 0 0.0 0.0 0.00 0.07 0.00 97 1013.9
20260506235902 49 0 0.0 0.0 0.00 0.07 0.00 97 1013.8
20260506235802 49 0 0.0 0.0 0.00 0.07 0.00 97 1013.9
20260506235724 49 0 0.0 0.0 0.00 0.07 0.00 97 1013.7
20260506235603 49 0 0.0 0.0 0.00 0.07 0.00 97 1013.7
20260506235503 49 0 0.0 0.0 0.00 0.07 0.00 97 1014.0
20260506235403 49 0 0.0 0.0 0.00 0.07 0.00 97 1013.8
20260506235306 49 0 0.0 0.0 0.00 0.07 0.00 97 1013.7
20260506235203 49 0 0.0 0.0 0.00 0.07 0.00 97 1013.8
20260506235124 49 22 0.0 1.0 0.00 0.07 0.00 97 1013.9
20260506235023 49 22 0.0 1.0 0.00 0.07 0.00 97 1013.9
20260506234903 49 20 0.0 1.0 0.00 0.07 0.00 96 1014.0
20260506234823 49 20 0.0 1.0 0.00 0.07 0.00 96 1014.0
20260506234724 49 20 0.0 1.0 0.00 0.07 0.00 96 1014.0
20260506234602 49 19 0.0 1.0 0.00 0.07 0.00 96 1014.0
20260506234523 49 19 0.0 1.0 0.00 0.07 0.00 96 1014.1
20260506234402 49 19 0.0 1.0 0.00 0.07 0.00 96 1014.1
20260506234303 49 19 0.0 1.0 0.00 0.07 0.00 96 1014.0
20260506234203 49 19 0.0 1.0 0.00 0.07 0.00 96 1013.9
20260506234103 50 19 0.0 1.0 0.00 0.07 0.00 96 1014.0
20260506234003 50 18 0.0 1.0 0.00 0.07 0.00 96 1014.1
20260506233902 50 18 0.0 1.0 0.00 0.07 0.00 96 1014.1
20260506233803 50 18 0.0 1.0 0.00 0.07 0.00 96 1014.0
20260506233724 50 18 0.0 1.0 0.00 0.07 0.00 96 1014.0
20260506233603 49 0 0.0 0.0 0.00 0.07 0.00 96 1014.1
20260506233503 49 0 0.0 0.0 0.00 0.07 0.00 96 1014.1
20260506233403 49 0 0.0 0.0 0.00 0.07 0.00 96 1014.0
20260506233303 49 0 0.0 0.0 0.00 0.07 0.00 96 1014.1
20260506233202 50 0 0.0 0.0 0.00 0.07 0.00 96 1014.2
20260506233124 50 0 0.0 0.0 0.00 0.07 0.00 96 1014.0
20260506233003 50 0 0.0 0.0 0.00 0.07 0.00 96 1014.0
20260506232903 50 0 0.0 0.0 0.00 0.07 0.00 96 1014.0
20260506232824 50 0 0.0 0.0 0.00 0.07 0.00 96 1014.0
20260506232703 50 0 0.0 0.0 0.00 0.07 0.00 96 1014.1
20260506232603 50 0 0.0 0.0 0.00 0.07 0.00 96 1014.1
20260506232502 50 0 0.0 0.0 0.00 0.07 0.00 96 1014.0
20260506232403 50 0 0.0 0.0 0.00 0.07 0.00 96 1014.1
20260506232306 50 0 0.0 0.0 0.00 0.07 0.00 96 1014.0
20260506232202 50 0 0.0 0.0 0.00 0.07 0.00 96 1014.1
20260506232124 50 0 0.0 0.0 0.00 0.07 0.00 96 1014.1
20260506232024 50 0 0.0 0.0 0.00 0.07 0.00 96 1014.0
20260506231903 50 0 0.0 0.0 0.00 0.07 0.00 96 1014.0
20260506231803 51 0 0.0 0.0 0.00 0.07 0.00 96 1014.0
20260506231703 51 0 0.0 0.0 0.00 0.07 0.00 96 1014.1
20260506231603 51 0 0.0 0.0 0.00 0.07 0.00 96 1013.9
20260506231503 51 0 0.0 0.0 0.00 0.07 0.00 96 1013.9
20260506231403 51 0 0.0 0.0 0.00 0.07 0.00 95 1014.0
20260506231323 51 0 0.0 0.0 0.00 0.07 0.00 95 1013.8
20260506231224 51 0 0.0 0.0 0.00 0.07 0.00 95 1013.9
20260506231103 51 0 0.0 0.0 0.00 0.07 0.00 95 1014.1
20260506231003 51 0 0.0 0.0 0.00 0.07 0.00 95 1014.2
20260506230903 51 0 0.0 0.0 0.00 0.07 0.00 95 1014.0
20260506230803 51 0 0.0 0.0 0.00 0.07 0.00 95 1014.0
20260506230703 51 0 0.0 0.0 0.00 0.07 0.00 95 1014.2
20260506230624 51 0 0.0 0.0 0.00 0.07 0.00 95 1014.2
20260506230502 51 0 0.0 0.0 0.00 0.07 0.00 95 1014.2
20260506230402 51 0 0.0 0.0 0.00 0.07 0.00 95 1014.2
20260506230302 51 0 0.0 0.0 0.00 0.07 0.00 95 1014.2
20260506230203 51 0 0.0 0.0 0.00 0.07 0.00 95 1014.2
20260506230103 51 0 0.0 0.0 0.00 0.07 0.00 95 1014.1
20260506230003 51 0 0.0 0.0 0.00 0.07 0.00 95 1014.1
20260506225903 51 0 0.0 0.0 0.00 0.07 0.00 95 1014.2
20260506225802 51 0 0.0 0.0 0.00 0.07 0.00 95 1014.2
20260506225703 51 0 0.0 0.0 0.00 0.07 0.00 95 1014.1
20260506225603 51 0 0.0 0.0 0.00 0.07 0.00 95 1014.3
20260506225503 51 0 0.0 0.0 0.00 0.07 0.00 95 1014.1
20260506225403 51 0 0.0 0.0 0.00 0.07 0.00 95 1014.3
20260506225305 51 0 0.0 0.0 0.00 0.07 0.00 95 1014.0
20260506225203 51 0 0.0 0.0 0.00 0.07 0.00 95 1014.0
20260506225124 51 0 0.0 0.0 0.00 0.07 0.00 95 1014.2
20260506225003 51 0 0.0 0.0 0.00 0.07 0.00 95 1014.2
20260506224903 51 0 0.0 0.0 0.00 0.07 0.00 95 1014.3
20260506224802 51 0 0.0 0.0 0.00 0.07 0.00 94 1014.3
20260506224724 51 0 0.0 0.0 0.00 0.07 0.00 94 1014.1
20260506224603 51 0 0.0 0.0 0.00 0.07 0.00 94 1014.3
20260506224503 51 0 0.0 0.0 0.00 0.07 0.00 94 1014.4
20260506224423 51 0 0.0 0.0 0.00 0.07 0.00 94 1014.3
20260506224303 51 0 0.0 0.0 0.00 0.07 0.00 94 1014.3
20260506224224 51 0 0.0 0.0 0.00 0.07 0.00 94 1014.3
20260506224103 51 0 0.0 0.0 0.00 0.07 0.00 94 1014.4
20260506224003 52 0 0.0 0.0 0.00 0.07 0.00 94 1014.3
20260506223903 52 0 0.0 0.0 0.00 0.07 0.00 94 1014.4
20260506223824 52 0 0.0 0.0 0.00 0.07 0.00 94 1014.4
20260506223723 52 0 0.0 0.0 0.00 0.07 0.00 94 1014.5
20260506223624 52 0 0.0 0.0 0.00 0.07 0.00 94 1014.2
20260506223503 52 0 0.0 0.0 0.00 0.07 0.00 94 1014.2
20260506223403 52 0 0.0 0.0 0.00 0.07 0.00 94 1014.4
20260506223303 52 0 0.0 0.0 0.00 0.07 0.00 94 1014.4
20260506223202 52 0 0.0 0.0 0.00 0.07 0.00 94 1014.5
20260506223103 52 0 0.0 0.0 0.00 0.07 0.00 94 1014.5
20260506223024 52 0 0.0 0.0 0.00 0.07 0.00 94 1014.4
20260506222903 52 0 0.0 0.0 0.00 0.07 0.00 94 1014.5
20260506222803 52 0 0.0 0.0 0.00 0.07 0.00 94 1014.4
20260506222703 52 0 0.0 0.0 0.00 0.07 0.00 94 1014.5
20260506222602 52 0 0.0 0.0 0.00 0.07 0.00 94 1014.4
20260506222503 52 0 0.0 0.0 0.00 0.07 0.00 94 1014.5
20260506222403 52 0 0.0 0.0 0.00 0.07 0.00 94 1014.4
20260506222305 52 0 0.0 0.0 0.00 0.07 0.00 94 1014.4
20260506222202 52 0 0.0 0.0 0.00 0.07 0.00 94 1014.4
20260506222103 52 0 0.0 0.0 0.00 0.07 0.00 94 1014.5
20260506222003 52 0 0.0 0.0 0.00 0.07 0.00 94 1014.5
20260506221924 52 0 0.0 0.0 0.00 0.07 0.00 94 1014.5
20260506221803 52 0 0.0 0.0 0.00 0.07 0.00 94 1014.5
20260506221703 52 0 0.0 0.0 0.00 0.07 0.00 94 1014.5
20260506221603 52 0 0.0 0.0 0.00 0.07 0.00 94 1014.6
20260506221524 52 0 0.0 0.0 0.00 0.07 0.00 94 1014.6
20260506221403 52 0 0.0 0.0 0.00 0.07 0.00 93 1014.6
20260506221303 52 0 0.0 0.0 0.00 0.07 0.00 93 1014.6
20260506221224 52 0 0.0 0.0 0.00 0.07 0.00 93 1014.6
20260506221103 52 0 0.0 0.0 0.00 0.07 0.00 93 1014.6
20260506221002 52 0 0.0 0.0 0.00 0.07 0.00 93 1014.6
20260506220903 52 0 0.0 0.0 0.00 0.07 0.00 93 1014.7
20260506220803 52 0 0.0 0.0 0.00 0.07 0.00 93 1014.8
20260506220724 52 0 0.0 0.0 0.00 0.07 0.00 93 1014.8
20260506220603 52 0 0.0 0.0 0.00 0.07 0.00 93 1014.7
20260506220503 52 0 0.0 0.0 0.00 0.07 0.00 93 1014.7
20260506220402 52 0 0.0 0.0 0.00 0.07 0.00 93 1014.9
20260506220324 52 0 0.0 0.0 0.00 0.07 0.00 93 1014.8
20260506220224 52 0 0.0 0.0 0.00 0.07 0.00 93 1014.7
20260506220025 52 0 0.0 0.0 0.00 0.07 0.00 93 1014.7
20260506215903 52 0 0.0 0.0 0.00 0.07 0.07 93 1014.8
20260506215803 52 0 0.0 0.0 0.00 0.07 0.07 93 1014.8
20260506215702 52 0 0.0 0.0 0.00 0.07 0.07 93 1014.7
20260506215602 53 0 0.0 0.0 0.00 0.07 0.07 93 1014.7
20260506215503 53 0 0.0 0.0 0.00 0.07 0.07 93 1014.7
20260506215403 53 0 0.0 0.0 0.00 0.07 0.07 92 1014.8
20260506215305 53 0 0.0 0.0 0.00 0.07 0.07 92 1014.8
20260506215224 53 0 0.0 0.0 0.00 0.07 0.07 92 1014.8
20260506215103 53 0 0.0 0.0 0.00 0.07 0.07 92 1014.8
20260506215003 53 0 0.0 0.0 0.00 0.07 0.07 92 1014.6
20260506214903 53 16 0.0 1.0 0.00 0.07 0.07 92 1014.6
20260506214803 53 16 0.0 1.0 0.00 0.07 0.07 92 1014.8
20260506214703 53 16 0.0 1.0 0.00 0.07 0.07 92 1014.7
20260506214603 53 16 0.0 1.0 0.00 0.07 0.07 92 1014.8
20260506214503 53 16 0.0 1.0 0.00 0.07 0.07 92 1014.8
20260506214403 53 16 0.0 1.0 0.00 0.07 0.07 92 1014.9
20260506214303 53 16 0.0 1.0 0.00 0.07 0.07 92 1014.6
20260506214203 53 16 0.0 1.0 0.00 0.07 0.07 92 1014.5
20260506214103 53 16 0.0 1.0 0.00 0.07 0.07 92 1014.8
20260506214003 53 16 0.0 1.0 0.00 0.07 0.07 92 1014.8
20260506213902 53 16 0.0 1.0 0.00 0.07 0.07 92 1014.8
20260506213803 53 0 0.0 0.0 0.00 0.07 0.07 92 1014.8
20260506213703 53 0 0.0 0.0 0.00 0.07 0.07 92 1014.7
20260506213603 53 17 0.0 1.0 0.00 0.07 0.07 92 1014.7
20260506213503 53 17 0.0 1.0 0.00 0.07 0.07 92 1014.7
20260506213403 53 17 0.0 1.0 0.00 0.07 0.07 92 1014.7
20260506213303 53 17 0.0 1.0 0.00 0.07 0.07 92 1014.8
20260506213224 53 17 0.0 1.0 0.00 0.07 0.07 92 1014.9
20260506213103 53 17 0.0 1.0 0.00 0.07 0.07 92 1014.8
20260506213003 53 17 0.0 1.0 0.00 0.07 0.07 91 1014.8
20260506212903 53 17 0.0 1.0 0.00 0.07 0.07 91 1014.7
20260506212803 53 17 0.0 1.0 0.00 0.07 0.07 91 1014.8
20260506212702 53 17 0.0 1.0 0.00 0.07 0.07 91 1014.7
20260506212624 53 17 0.0 1.0 0.00 0.07 0.07 91 1014.7
20260506212503 53 16 0.0 1.0 0.00 0.07 0.07 91 1014.8
20260506212402 53 16 0.0 1.0 0.00 0.07 0.07 91 1014.8
20260506212306 53 16 0.0 1.0 0.00 0.07 0.07 91 1014.9
20260506212224 53 16 0.0 1.0 0.00 0.07 0.07 91 1014.8
20260506212103 53 16 0.0 1.0 0.00 0.07 0.07 91 1014.8
20260506212003 53 16 0.0 2.0 0.00 0.07 0.07 91 1014.7
20260506211902 53 16 0.0 2.0 0.00 0.07 0.07 91 1014.9
20260506211803 53 16 0.0 2.0 0.00 0.07 0.07 91 1014.8
20260506211702 53 16 0.0 2.0 0.00 0.07 0.07 91 1014.9
20260506211624 53 16 0.0 2.0 0.00 0.07 0.07 91 1014.7
20260506211503 53 16 0.0 2.0 0.00 0.07 0.07 91 1014.8
20260506211403 53 16 0.0 2.0 0.00 0.07 0.07 91 1014.8
20260506211303 53 17 1.0 2.0 0.00 0.07 0.07 91 1014.7
20260506211203 53 17 0.0 2.0 0.00 0.07 0.07 91 1014.7
20260506211103 53 17 1.0 2.0 0.00 0.07 0.07 91 1014.9
20260506211003 53 17 0.0 1.0 0.00 0.07 0.07 91 1014.7
20260506210903 53 17 0.0 1.0 0.00 0.07 0.07 91 1014.8
20260506210803 53 17 0.0 1.0 0.00 0.07 0.07 91 1014.8
20260506210703 53 17 0.0 1.0 0.00 0.07 0.07 91 1014.8
20260506210624 53 17 0.0 1.0 0.00 0.07 0.07 91 1014.8
20260506210503 53 17 0.0 1.0 0.00 0.07 0.07 91 1014.8
20260506210403 53 17 0.0 1.0 0.00 0.07 0.07 90 1014.6
20260506210303 53 17 0.0 1.0 0.00 0.07 0.07 90 1014.8
20260506210203 53 17 0.0 1.0 0.00 0.07 0.07 90 1014.6
20260506210124 53 17 0.0 1.0 0.00 0.07 0.07 90 1014.7
20260506210003 53 17 0.0 1.0 0.00 0.07 0.07 90 1014.9
20260506205903 53 17 0.0 1.0 0.00 0.07 0.07 90 1014.6
20260506205803 53 17 0.0 1.0 0.00 0.07 0.07 90 1014.8
20260506205724 53 17 0.0 1.0 0.00 0.07 0.07 90 1014.8
20260506205603 53 17 0.0 1.0 0.00 0.07 0.07 90 1015.0
20260506205503 53 17 0.0 1.0 0.00 0.07 0.07 90 1014.7
20260506205403 53 17 0.0 1.0 0.00 0.07 0.07 90 1014.7
20260506205305 53 16 0.0 1.0 0.00 0.07 0.07 90 1014.9
20260506205224 53 16 0.0 1.0 0.00 0.07 0.07 90 1014.9
20260506205103 53 16 0.0 1.0 0.00 0.07 0.07 90 1014.9
20260506205003 53 16 0.0 1.0 0.00 0.07 0.07 90 1014.8
20260506204903 53 16 0.0 1.0 0.00 0.07 0.07 90 1014.9
20260506204803 53 16 0.0 1.0 0.00 0.07 0.07 89 1014.9
20260506204703 53 16 1.0 1.0 0.00 0.07 0.07 89 1014.7
20260506204624 53 16 1.0 1.0 0.00 0.07 0.07 89 1014.8
20260506204503 53 16 1.0 1.0 0.00 0.07 0.07 89 1014.8
20260506204424 53 16 1.0 1.0 0.00 0.07 0.07 89 1014.7
20260506204303 53 16 1.0 1.0 0.00 0.07 0.07 89 1014.7
20260506204203 53 16 1.0 1.0 0.00 0.07 0.07 89 1014.9
20260506204124 53 16 1.0 1.0 0.00 0.07 0.07 89 1014.8
20260506204003 53 16 1.0 1.0 0.00 0.07 0.07 89 1014.7
20260506203903 54 16 1.0 1.0 0.00 0.07 0.07 89 1014.9
20260506203803 54 16 1.0 1.0 0.00 0.07 0.07 89 1014.9
20260506203703 54 16 1.0 1.0 0.00 0.07 0.07 89 1014.7
20260506203603 54 13 1.0 2.0 0.00 0.07 0.07 89 1014.8
20260506203503 54 13 1.0 2.0 0.00 0.07 0.07 89 1014.8
20260506203403 54 14 1.0 2.0 0.00 0.07 0.07 89 1014.8
20260506203303 54 13 1.0 2.0 0.00 0.07 0.07 89 1014.8
20260506203203 54 10 1.0 3.0 0.00 0.07 0.07 88 1014.8
20260506203103 54 10 1.0 3.0 0.00 0.07 0.07 88 1014.7
20260506203003 54 11 2.0 3.0 0.00 0.07 0.07 88 1014.6
20260506202903 54 11 1.0 3.0 0.00 0.07 0.07 88 1014.7
20260506202803 54 10 2.0 3.0 0.00 0.07 0.07 88 1014.6
20260506202703 54 10 2.0 3.0 0.00 0.07 0.07 88 1014.5
20260506202603 54 10 2.0 3.0 0.00 0.07 0.07 88 1014.6
20260506202503 54 12 2.0 3.0 0.00 0.07 0.07 88 1014.6
20260506202404 54 12 2.0 3.0 0.00 0.07 0.07 88 1014.7
20260506202306 54 11 2.0 3.0 0.00 0.07 0.07 89 1014.7
20260506202203 54 12 2.0 3.0 0.00 0.07 0.07 89 1014.5
20260506202103 54 12 1.0 2.0 0.00 0.07 0.07 89 1014.5
20260506202024 54 12 1.0 2.0 0.00 0.07 0.07 89 1014.5
20260506201903 54 12 2.0 3.0 0.00 0.07 0.07 88 1014.6
20260506201803 54 13 2.0 3.0 0.00 0.07 0.07 88 1014.5
20260506201703 54 13 2.0 3.0 0.00 0.07 0.07 88 1014.6
20260506201603 54 13 2.0 3.0 0.00 0.07 0.07 88 1014.5
20260506201503 54 13 2.0 3.0 0.00 0.07 0.07 88 1014.5
20260506201403 54 13 2.0 3.0 0.00 0.07 0.07 88 1014.6
20260506201303 54 13 1.0 3.0 0.00 0.07 0.07 88 1014.5
20260506201203 54 15 1.0 3.0 0.00 0.07 0.07 88 1014.5
20260506201124 54 17 1.0 3.0 0.00 0.07 0.07 88 1014.4
20260506201003 54 16 1.0 3.0 0.00 0.07 0.07 88 1014.5
20260506200903 54 17 1.0 2.0 0.00 0.07 0.07 88 1014.5
20260506200803 54 17 1.0 2.0 0.00 0.07 0.07 88 1014.5
20260506200703 54 17 1.0 2.0 0.00 0.07 0.07 88 1014.5
20260506200603 54 17 1.0 2.0 0.00 0.07 0.07 88 1014.7
20260506200503 54 16 1.0 2.0 0.00 0.07 0.07 88 1014.6
20260506200403 54 16 1.0 2.0 0.00 0.07 0.07 88 1014.6
20260506200303 55 17 1.0 2.0 0.00 0.07 0.07 88 1014.5
20260506200203 55 16 1.0 2.0 0.00 0.07 0.07 88 1014.6
20260506200124 55 16 1.0 2.0 0.00 0.07 0.07 88 1014.6
20260506200024 55 16 1.0 2.0 0.00 0.07 0.07 88 1014.7
20260506195903 55 16 1.0 2.0 0.00 0.07 0.07 88 1014.6
20260506195803 55 16 1.0 2.0 0.00 0.07 0.07 88 1014.7
20260506195703 55 17 1.0 2.0 0.00 0.07 0.07 88 1014.5
20260506195603 55 17 1.0 2.0 0.00 0.07 0.07 88 1014.5
20260506195503 55 17 1.0 2.0 0.00 0.07 0.07 88 1014.5
20260506195403 55 19 1.0 2.0 0.00 0.07 0.07 88 1014.5
20260506195305 55 19 1.0 2.0 0.00 0.07 0.07 88 1014.6
20260506195203 55 19 1.0 2.0 0.00 0.07 0.07 88 1014.7
20260506195103 55 20 1.0 2.0 0.00 0.07 0.07 88 1014.6
20260506195003 55 20 1.0 2.0 0.00 0.07 0.07 88 1014.7
20260506194903 55 23 1.0 2.0 0.00 0.07 0.07 88 1014.6
20260506194803 55 23 1.0 2.0 0.00 0.07 0.07 88 1014.7
20260506194703 55 21 1.0 2.0 0.00 0.07 0.07 87 1014.6
20260506194603 55 20 1.0 2.0 0.00 0.07 0.07 87 1014.4
20260506194503 55 19 1.0 2.0 0.00 0.07 0.07 87 1014.6
20260506194403 55 19 1.0 2.0 0.00 0.07 0.07 87 1014.6
20260506194303 55 17 1.0 3.0 0.00 0.07 0.07 87 1014.5
20260506194203 55 14 1.0 3.0 0.00 0.07 0.07 87 1014.4
20260506194103 55 13 1.0 3.0 0.00 0.07 0.07 87 1014.5
20260506194003 55 12 2.0 3.0 0.00 0.07 0.07 87 1014.6
20260506193903 55 12 1.0 3.0 0.00 0.07 0.07 87 1014.5
20260506193803 56 11 1.0 3.0 0.00 0.07 0.07 87 1014.5
20260506193703 56 11 1.0 3.0 0.00 0.07 0.07 87 1014.6
20260506193603 56 10 1.0 3.0 0.00 0.07 0.07 87 1014.6
20260506193503 56 9 1.0 3.0 0.00 0.07 0.07 87 1014.4
20260506193424 56 10 2.0 3.0 0.00 0.07 0.07 87 1014.8
20260506193303 56 11 2.0 3.0 0.00 0.07 0.07 87 1014.7
20260506193203 56 13 1.0 3.0 0.00 0.07 0.07 87 1014.7
20260506193103 56 16 1.0 2.0 0.00 0.07 0.07 87 1014.6
20260506193003 56 17 1.0 2.0 0.00 0.07 0.07 87 1014.5
20260506192903 56 17 1.0 2.0 0.00 0.07 0.07 87 1014.5
20260506192803 56 17 1.0 2.0 0.00 0.07 0.07 86 1014.6
20260506192724 56 17 1.0 2.0 0.00 0.07 0.07 86 1014.8
20260506192603 56 17 1.0 2.0 0.00 0.07 0.07 86 1014.8
20260506192503 56 17 1.0 2.0 0.00 0.07 0.07 86 1014.8
20260506192424 56 17 1.0 2.0 0.00 0.07 0.07 86 1014.8
20260506192305 56 18 1.0 2.0 0.00 0.07 0.07 86 1014.6
20260506192203 56 13 1.0 3.0 0.00 0.07 0.07 86 1014.7
20260506192124 56 13 1.0 3.0 0.00 0.07 0.07 86 1014.7
20260506192003 57 12 1.0 3.0 0.00 0.07 0.07 86 1014.6
20260506191903 57 12 1.0 3.0 0.00 0.07 0.07 86 1014.6
20260506191803 57 11 1.0 3.0 0.00 0.07 0.07 86 1014.6
20260506191703 57 10 1.0 3.0 0.00 0.07 0.07 86 1014.5
20260506191603 57 9 1.0 3.0 0.00 0.07 0.07 85 1014.5
20260506191503 57 9 1.0 3.0 0.00 0.07 0.07 85 1014.6
20260506191403 57 7 1.0 4.0 0.00 0.07 0.07 85 1014.6
20260506191303 57 7 1.0 4.0 0.00 0.07 0.07 85 1014.5
20260506191203 57 6 1.0 4.0 0.00 0.07 0.07 85 1014.5
20260506191103 57 8 1.0 4.0 0.00 0.07 0.07 85 1014.5
20260506191003 57 8 1.0 4.0 0.00 0.07 0.07 85 1014.6
20260506190903 57 8 1.0 4.0 0.00 0.07 0.07 85 1014.6
20260506190803 57 8 1.0 4.0 0.00 0.07 0.07 84 1014.6
20260506190724 57 9 1.0 4.0 0.00 0.07 0.07 84 1014.5
20260506190624 57 9 1.0 4.0 0.00 0.07 0.07 84 1014.5
20260506190503 57 7 1.0 4.0 0.00 0.07 0.07 84 1014.4
20260506190403 57 7 1.0 3.0 0.00 0.07 0.07 84 1014.4
20260506190324 57 7 1.0 3.0 0.00 0.07 0.07 84 1014.4
20260506190203 57 9 2.0 3.0 0.00 0.07 0.07 84 1014.5
20260506190003 57 11 2.0 3.0 0.00 0.07 0.07 83 1014.3
20260506185903 57 10 2.0 6.0 0.00 0.07 0.07 83 1014.4
20260506185824 57 10 2.0 6.0 0.00 0.07 0.07 83 1014.4
20260506185703 57 10 2.0 6.0 0.00 0.07 0.07 83 1014.5
20260506185603 58 11 2.0 6.0 0.00 0.07 0.07 83 1014.6
20260506185503 58 11 3.0 6.0 0.00 0.07 0.07 83 1014.5
20260506185403 58 15 3.0 6.0 0.00 0.07 0.07 83 1014.5
20260506185324 58 15 3.0 6.0 0.00 0.07 0.07 83 1014.7
20260506185203 58 15 2.0 6.0 0.00 0.07 0.07 83 1014.5
20260506185103 58 14 2.0 6.0 0.00 0.07 0.07 82 1014.5
20260506185003 58 14 2.0 6.0 0.00 0.07 0.07 82 1014.5
20260506184903 58 14 2.0 6.0 0.00 0.07 0.07 82 1014.7
20260506184824 58 14 2.0 6.0 0.00 0.07 0.07 82 1014.7
20260506184703 58 14 2.0 6.0 0.00 0.07 0.07 82 1014.3
20260506184603 58 15 2.0 6.0 0.00 0.07 0.07 82 1014.7
20260506184503 58 14 2.0 6.0 0.00 0.07 0.07 82 1014.5
20260506184424 58 13 2.0 6.0 0.00 0.07 0.07 82 1014.5
20260506184324 58 11 2.0 3.0 0.00 0.07 0.07 82 1014.5
20260506184203 58 12 2.0 3.0 0.00 0.07 0.07 82 1014.6
20260506184103 58 12 2.0 3.0 0.00 0.07 0.07 82 1014.4
20260506184003 58 13 2.0 3.0 0.00 0.07 0.07 82 1014.5
20260506183903 58 13 2.0 3.0 0.00 0.07 0.07 82 1014.5
20260506183803 58 13 2.0 3.0 0.00 0.07 0.07 82 1014.5
20260506183703 58 12 2.0 6.0 0.00 0.07 0.07 82 1014.4
20260506183603 58 11 2.0 6.0 0.00 0.07 0.07 82 1014.6
20260506183503 58 16 2.0 6.0 0.00 0.07 0.07 82 1014.4
20260506183403 58 16 2.0 6.0 0.00 0.07 0.07 82 1014.6
20260506183303 58 16 2.0 6.0 0.00 0.07 0.07 81 1014.6
20260506183203 57 15 2.0 6.0 0.00 0.07 0.07 81 1014.4
20260506183103 57 16 2.0 6.0 0.00 0.07 0.07 81 1014.6
20260506183003 57 16 2.0 6.0 0.00 0.07 0.07 81 1014.4
20260506182903 57 16 2.0 6.0 0.00 0.07 0.07 81 1014.4
20260506182803 57 16 2.0 6.0 0.00 0.07 0.07 81 1014.7
20260506182703 57 16 2.0 6.0 0.00 0.07 0.07 81 1014.6
20260506182603 57 18 2.0 4.0 0.00 0.07 0.07 81 1014.4
20260506182503 57 17 2.0 4.0 0.00 0.07 0.07 81 1014.7
20260506182403 57 8 3.0 7.0 0.00 0.07 0.07 82 1014.4
20260506182306 57 10 3.0 7.0 0.00 0.07 0.07 82 1014.5
20260506182203 57 10 3.0 7.0 0.00 0.07 0.07 82 1014.6
20260506182103 57 8 3.0 8.0 0.00 0.07 0.07 83 1014.6
20260506182004 57 8 3.0 8.0 0.00 0.07 0.07 83 1014.6
20260506181903 57 9 3.0 8.0 0.00 0.07 0.07 82 1014.5
20260506181803 57 9 3.0 8.0 0.00 0.07 0.07 82 1014.4
20260506181703 57 8 4.0 8.0 0.00 0.07 0.07 82 1014.4
20260506181604 57 8 4.0 8.0 0.00 0.07 0.07 82 1014.6
20260506181503 57 9 4.0 8.0 0.00 0.07 0.07 82 1014.6
20260506181403 57 14 3.0 8.0 0.00 0.07 0.07 82 1014.6
20260506181303 57 13 3.0 8.0 0.00 0.07 0.07 82 1014.6
20260506181224 57 13 3.0 8.0 0.00 0.07 0.07 82 1014.6
20260506181124 57 15 3.0 8.0 0.00 0.07 0.07 82 1014.5
20260506181024 58 19 3.0 7.0 0.00 0.07 0.07 82 1014.6
20260506180903 58 20 2.0 7.0 0.00 0.07 0.07 82 1014.5
20260506180803 58 21 2.0 6.0 0.00 0.07 0.07 82 1014.5
20260506180724 58 18 3.0 6.0 0.00 0.07 0.07 82 1014.7
20260506180603 58 17 3.0 6.0 0.00 0.07 0.07 81 1014.6
20260506180503 58 19 3.0 6.0 0.00 0.07 0.07 81 1014.5
20260506180403 58 23 3.0 6.0 0.00 0.07 0.07 81 1014.7
20260506180303 59 21 3.0 6.0 0.00 0.07 0.07 81 1014.5
20260506180203 59 22 3.0 8.0 0.00 0.07 0.07 81 1014.5
20260506180124 59 23 3.0 8.0 0.00 0.07 0.07 81 1014.5
20260506180004 59 17 3.0 8.0 0.00 0.07 0.07 80 1014.5
20260506175903 59 17 4.0 8.0 0.00 0.07 0.07 80 1014.5
20260506175803 59 16 4.0 8.0 0.00 0.07 0.07 79 1014.5
20260506175703 59 18 4.0 8.0 0.00 0.07 0.07 80 1014.5
20260506175603 59 20 4.0 8.0 0.00 0.07 0.07 80 1014.6
20260506175503 59 20 4.0 8.0 0.00 0.07 0.07 80 1014.6
20260506175403 59 12 4.0 10.0 0.00 0.07 0.07 80 1014.7
20260506175306 59 8 4.0 10.0 0.00 0.07 0.07 80 1014.6
20260506175203 59 7 4.0 10.0 0.00 0.07 0.07 81 1014.6
20260506175103 59 3 4.0 10.0 0.00 0.07 0.07 81 1014.8
20260506175003 59 360 4.0 10.0 0.00 0.07 0.07 81 1014.6
20260506174903 59 360 4.0 10.0 0.00 0.07 0.07 81 1014.6
20260506174803 59 356 4.0 10.0 0.00 0.07 0.07 81 1014.7
20260506174724 59 357 4.0 10.0 0.00 0.07 0.07 81 1014.6
20260506174603 60 355 4.0 10.0 0.00 0.07 0.07 80 1014.6
20260506174503 60 355 4.0 10.0 0.00 0.07 0.07 79 1014.7
20260506174403 60 357 3.0 7.0 0.00 0.07 0.07 80 1014.7
20260506174303 60 358 4.0 8.0 0.00 0.07 0.07 80 1014.6
20260506174203 60 356 4.0 8.0 0.00 0.07 0.07 80 1014.7
20260506174103 60 359 5.0 8.0 0.00 0.07 0.07 79 1014.6
20260506174003 60 355 5.0 8.0 0.00 0.07 0.07 78 1014.7
20260506173903 60 356 5.0 8.0 0.00 0.07 0.07 78 1014.7
20260506173803 60 357 5.0 8.0 0.00 0.07 0.07 78 1014.6
20260506173703 60 353 5.0 8.0 0.00 0.07 0.07 79 1014.6
20260506173603 60 355 5.0 8.0 0.00 0.07 0.07 78 1014.6
20260506173503 60 355 5.0 8.0 0.00 0.07 0.07 78 1014.6
20260506173403 60 354 5.0 8.0 0.00 0.07 0.07 78 1014.8
20260506173303 60 355 4.0 8.0 0.00 0.07 0.07 77 1014.6
20260506173203 60 356 4.0 8.0 0.00 0.07 0.07 76 1014.8
20260506173103 60 357 4.0 8.0 0.00 0.07 0.07 76 1014.8
20260506173003 61 355 3.0 8.0 0.00 0.07 0.07 76 1014.8
20260506172903 61 356 3.0 8.0 0.00 0.07 0.07 75 1014.9
20260506172803 62 356 3.0 8.0 0.00 0.07 0.07 74 1014.8
20260506172703 62 359 3.0 6.0 0.00 0.07 0.07 75 1014.9
20260506172603 61 3 2.0 6.0 0.00 0.07 0.07 75 1014.9
20260506172503 61 2 2.0 6.0 0.00 0.07 0.07 76 1014.8
20260506172403 61 3 3.0 6.0 0.00 0.07 0.07 75 1014.9
20260506172306 61 3 3.0 6.0 0.00 0.07 0.07 75 1014.8
20260506172203 61 5 3.0 6.0 0.00 0.07 0.07 75 1014.9
20260506172124 61 5 3.0 6.0 0.00 0.07 0.07 75 1014.9
20260506172003 61 8 3.0 6.0 0.00 0.07 0.07 75 1014.8
20260506171903 61 13 3.0 6.0 0.00 0.07 0.07 76 1015.0
20260506171803 61 12 3.0 7.0 0.00 0.07 0.07 75 1014.9
20260506171703 61 12 3.0 7.0 0.00 0.07 0.07 75 1014.8
20260506171603 61 12 3.0 7.0 0.00 0.07 0.07 75 1014.8
20260506171503 61 13 3.0 7.0 0.00 0.07 0.07 75 1015.0
20260506171403 61 13 3.0 7.0 0.00 0.07 0.07 75 1014.8
20260506171324 61 10 3.0 7.0 0.00 0.07 0.07 75 1014.9
20260506171224 61 6 3.0 7.0 0.00 0.07 0.07 75 1014.8
20260506171124 61 359 3.0 7.0 0.00 0.07 0.07 75 1014.8
20260506171003 61 356 3.0 7.0 0.00 0.07 0.07 74 1014.9
20260506170903 61 352 3.0 7.0 0.00 0.07 0.07 73 1014.9
20260506170803 62 350 3.0 7.0 0.00 0.07 0.07 72 1015.0
20260506170725 62 347 3.0 7.0 0.00 0.07 0.07 72 1014.9
20260506170603 61 346 3.0 7.0 0.00 0.07 0.07 72 1014.7
20260506170503 61 347 3.0 7.0 0.00 0.07 0.07 72 1015.0
20260506170403 61 341 3.0 7.0 0.00 0.07 0.07 73 1014.7
20260506170303 61 344 3.0 7.0 0.00 0.07 0.07 71 1015.0
20260506170203 61 346 2.0 7.0 0.00 0.07 0.07 72 1014.8
20260506170124 61 346 2.0 7.0 0.00 0.07 0.07 72 1014.8
20260506170004 61 356 2.0 4.0 0.00 0.07 0.07 71 1014.9
20260506165903 61 356 2.0 4.0 0.00 0.07 0.07 71 1014.9
20260506165824 62 360 2.0 3.0 0.00 0.07 0.07 71 1014.7
20260506165703 62 355 2.0 4.0 0.00 0.07 0.07 70 1014.8
20260506165603 62 351 2.0 6.0 0.00 0.07 0.07 73 1014.9
20260506165503 62 355 2.0 7.0 0.00 0.07 0.07 73 1014.9
20260506165403 61 352 2.0 7.0 0.00 0.07 0.07 74 1015.0
20260506165324 61 356 3.0 7.0 0.00 0.07 0.07 73 1015.2
20260506165203 60 354 3.0 7.0 0.00 0.07 0.07 74 1014.8
20260506165103 60 352 4.0 7.0 0.00 0.07 0.07 74 1015.1
20260506165003 60 353 4.0 7.0 0.00 0.07 0.07 74 1015.1
20260506164903 60 353 4.0 7.0 0.00 0.07 0.07 74 1014.9
20260506164804 60 350 4.0 9.0 0.00 0.07 0.07 73 1015.0
20260506164724 60 350 4.0 9.0 0.00 0.07 0.07 73 1015.0
20260506164603 60 354 4.0 9.0 0.00 0.07 0.07 72 1014.9
20260506164503 60 351 4.0 9.0 0.00 0.07 0.07 73 1015.0
20260506164403 60 351 4.0 9.0 0.00 0.07 0.07 73 1015.0
20260506164303 60 352 5.0 9.0 0.00 0.07 0.07 72 1015.1
20260506164203 60 349 5.0 9.0 0.00 0.07 0.07 73 1015.0
20260506164103 60 353 5.0 9.0 0.00 0.07 0.07 74 1014.8
20260506164003 60 351 5.0 9.0 0.00 0.07 0.07 74 1015.2
20260506163903 60 352 5.0 9.0 0.00 0.07 0.07 74 1015.2
20260506163803 60 355 5.0 9.0 0.00 0.07 0.07 75 1015.0
20260506163703 60 358 5.0 9.0 0.00 0.07 0.07 76 1015.0
20260506163603 60 359 5.0 9.0 0.00 0.07 0.07 77 1014.9
20260506163503 60 356 5.0 9.0 0.00 0.07 0.07 77 1014.8
20260506163403 60 355 5.0 9.0 0.00 0.07 0.07 78 1014.9
20260506163303 60 356 5.0 9.0 0.00 0.07 0.07 78 1015.0
20260506163203 60 360 4.0 9.0 0.00 0.07 0.07 78 1015.0
20260506163103 60 359 4.0 9.0 0.00 0.07 0.07 79 1015.0
20260506163003 60 2 4.0 9.0 0.00 0.07 0.07 77 1015.0
20260506162903 60 357 4.0 9.0 0.00 0.07 0.07 76 1015.1
20260506162803 60 357 4.0 9.0 0.00 0.07 0.07 76 1015.1
20260506162703 60 353 4.0 9.0 0.00 0.07 0.07 77 1014.9
20260506162603 60 354 4.0 9.0 0.00 0.07 0.07 77 1015.0
20260506162503 60 348 4.0 9.0 0.00 0.07 0.07 76 1015.0
20260506162403 60 349 4.0 9.0 0.00 0.07 0.07 77 1014.9
20260506162306 60 353 3.0 8.0 0.00 0.07 0.07 78 1015.0
20260506162203 60 351 3.0 8.0 0.00 0.07 0.07 79 1015.0
20260506162103 60 352 3.0 8.0 0.00 0.07 0.07 78 1014.8
20260506162024 60 351 3.0 8.0 0.00 0.07 0.07 78 1015.0
20260506161903 60 348 4.0 9.0 0.00 0.07 0.07 77 1015.1
20260506161803 61 354 4.0 9.0 0.00 0.07 0.07 76 1015.0
20260506161703 61 348 4.0 9.0 0.00 0.07 0.07 76 1015.0
20260506161603 61 346 3.0 9.0 0.00 0.07 0.07 76 1015.0
20260506161503 61 352 3.0 9.0 0.00 0.07 0.07 77 1015.0
20260506161403 60 355 3.0 9.0 0.00 0.07 0.07 76 1014.8
20260506161303 60 355 3.0 9.0 0.00 0.07 0.07 76 1014.9
20260506161203 60 355 3.0 9.0 0.00 0.07 0.07 76 1014.9
20260506161103 60 353 3.0 9.0 0.00 0.07 0.07 77 1015.0
20260506161003 60 353 3.0 9.0 0.00 0.07 0.07 76 1015.0
20260506160903 60 354 3.0 9.0 0.00 0.07 0.07 76 1015.0
20260506160803 61 360 3.0 8.0 0.00 0.07 0.07 76 1015.1
20260506160703 61 357 3.0 8.0 0.00 0.07 0.07 76 1015.1
20260506160603 61 4 3.0 8.0 0.00 0.07 0.07 77 1015.1
20260506160503 61 3 3.0 8.0 0.00 0.07 0.07 78 1015.0
20260506160403 60 359 4.0 8.0 0.00 0.07 0.07 78 1015.0
20260506160303 60 359 4.0 8.0 0.00 0.07 0.07 78 1015.2
20260506160203 60 356 4.0 8.0 0.00 0.07 0.07 78 1015.2
20260506160124 59 359 4.0 8.0 0.00 0.07 0.07 79 1015.1
20260506160003 59 356 4.0 8.0 0.00 0.07 0.07 79 1015.2
20260506155903 59 357 5.0 10.0 0.00 0.07 0.07 79 1015.1
20260506155803 59 356 5.0 10.0 0.00 0.07 0.07 80 1015.1
20260506155703 59 353 5.0 10.0 0.00 0.07 0.07 80 1015.2
20260506155603 59 354 5.0 10.0 0.00 0.07 0.07 80 1015.2
20260506155524 59 354 5.0 10.0 0.00 0.07 0.07 80 1015.2
20260506155403 59 355 5.0 10.0 0.00 0.07 0.07 81 1015.1
20260506155305 58 356 5.0 10.0 0.00 0.07 0.07 81 1015.2
20260506155203 58 356 5.0 10.0 0.00 0.07 0.07 81 1015.1
20260506155103 58 358 5.0 10.0 0.00 0.07 0.07 81 1015.2
20260506155003 58 356 5.0 10.0 0.00 0.07 0.07 81 1015.2
20260506154903 58 359 4.0 10.0 0.00 0.07 0.07 81 1015.2
20260506154824 58 356 4.0 9.0 0.00 0.07 0.07 81 1015.2
20260506154724 58 357 4.0 9.0 0.00 0.07 0.07 80 1015.2
20260506154603 59 356 3.0 9.0 0.00 0.07 0.07 81 1015.2
20260506154503 59 348 3.0 7.0 0.00 0.07 0.07 80 1015.1
20260506154424 59 348 3.0 7.0 0.00 0.07 0.07 80 1015.1
20260506154303 59 327 2.0 6.0 0.00 0.07 0.07 82 1015.1
20260506154224 59 327 2.0 6.0 0.00 0.07 0.07 82 1015.1
20260506154103 59 326 3.0 6.0 0.00 0.07 0.07 81 1015.2
20260506154003 59 326 3.0 6.0 0.00 0.07 0.07 81 1015.2
20260506153903 59 329 3.0 6.0 0.00 0.07 0.07 81 1015.1
20260506153803 60 331 3.0 6.0 0.00 0.07 0.07 80 1015.3
20260506153703 60 331 3.0 6.0 0.00 0.07 0.07 80 1015.3
20260506153603 59 336 3.0 10.0 0.00 0.07 0.07 80 1015.2
20260506153524 59 342 3.0 10.0 0.00 0.07 0.07 80 1015.3
20260506153403 59 350 4.0 10.0 0.00 0.07 0.07 80 1015.3
20260506153303 59 355 4.0 10.0 0.00 0.07 0.07 79 1015.2
20260506153203 59 357 4.0 10.0 0.00 0.07 0.07 78 1015.2
20260506153124 59 358 4.0 10.0 0.00 0.07 0.07 79 1015.3
20260506153004 59 358 3.0 10.0 0.00 0.07 0.07 79 1015.1
20260506152903 59 356 3.0 10.0 0.00 0.07 0.07 78 1015.3
20260506152824 59 356 3.0 10.0 0.00 0.07 0.07 77 1015.2
20260506152703 59 352 3.0 10.0 0.00 0.07 0.07 76 1015.1
20260506152603 59 350 3.0 6.0 0.00 0.07 0.07 77 1015.3
20260506152503 60 349 3.0 6.0 0.00 0.07 0.07 75 1015.1
20260506152424 60 349 3.0 6.0 0.00 0.07 0.07 75 1015.1
20260506152305 61 349 3.0 6.0 0.00 0.07 0.07 77 1015.3
20260506152203 60 357 3.0 6.0 0.00 0.07 0.07 76 1015.2
20260506152103 60 358 3.0 6.0 0.00 0.07 0.07 76 1015.2
20260506152004 60 358 3.0 6.0 0.00 0.07 0.07 76 1015.2
20260506151903 60 357 3.0 6.0 0.00 0.07 0.07 75 1015.3
20260506151824 60 356 3.0 6.0 0.00 0.07 0.07 74 1015.3
20260506151703 60 356 3.0 6.0 0.00 0.07 0.07 73 1015.2
20260506151603 60 360 2.0 6.0 0.00 0.07 0.07 73 1015.2
20260506151524 60 1 2.0 6.0 0.00 0.07 0.07 74 1015.2
20260506151424 60 2 2.0 6.0 0.00 0.07 0.07 74 1015.3
20260506151303 60 2 2.0 6.0 0.00 0.07 0.07 74 1015.2
20260506151203 60 2 3.0 6.0 0.00 0.07 0.07 74 1015.4
20260506151124 60 1 2.0 6.0 0.00 0.07 0.07 74 1015.4
20260506151003 60 347 2.0 6.0 0.00 0.07 0.07 75 1015.2
20260506150903 60 337 3.0 6.0 0.00 0.07 0.07 75 1015.3
20260506150803 60 343 3.0 6.0 0.00 0.07 0.07 75 1015.4
20260506150703 60 345 3.0 9.0 0.00 0.07 0.07 75 1015.4
20260506150604 60 345 3.0 9.0 0.00 0.07 0.07 75 1015.4
20260506150503 60 344 3.0 9.0 0.00 0.07 0.07 74 1015.4
20260506150403 60 344 3.0 9.0 0.00 0.07 0.07 74 1015.4
20260506150324 60 344 3.0 9.0 0.00 0.07 0.07 74 1015.4
20260506150203 60 342 3.0 9.0 0.00 0.07 0.07 74 1015.6
20260506150003 60 337 3.0 9.0 0.00 0.07 0.07 74 1015.4
20260506145903 60 336 3.0 9.0 0.00 0.07 0.07 74 1015.5
20260506145824 60 339 3.0 9.0 0.00 0.07 0.07 74 1015.4
20260506145703 60 333 3.0 9.0 0.00 0.07 0.07 74 1015.6
20260506145603 60 319 2.0 6.0 0.00 0.07 0.07 74 1015.6
20260506145503 60 306 2.0 6.0 0.00 0.07 0.07 75 1015.4
20260506145424 60 302 3.0 6.0 0.00 0.07 0.07 74 1015.4
20260506145305 60 299 2.0 6.0 0.00 0.07 0.07 76 1015.5
20260506145224 60 294 3.0 6.0 0.00 0.07 0.07 76 1015.6
20260506145124 60 294 3.0 6.0 0.00 0.07 0.07 76 1015.6
20260506145003 61 293 2.0 6.0 0.00 0.07 0.07 76 1015.6
20260506144903 60 310 2.0 4.0 0.00 0.07 0.07 77 1015.6
20260506144803 60 310 2.0 4.0 0.00 0.07 0.07 77 1015.6
20260506144703 60 325 3.0 6.0 0.00 0.07 0.07 76 1015.7
20260506144624 60 333 3.0 6.0 0.00 0.07 0.07 76 1015.6
20260506144524 60 343 3.0 6.0 0.00 0.07 0.07 76 1015.6
20260506144403 60 355 3.0 6.0 0.00 0.07 0.07 76 1015.6
20260506144303 60 3 3.0 6.0 0.00 0.07 0.07 76 1015.5
20260506144203 60 5 3.0 6.0 0.00 0.07 0.07 77 1015.5
20260506144103 60 9 3.0 6.0 0.00 0.07 0.07 77 1015.7
20260506144003 60 9 3.0 6.0 0.00 0.07 0.07 78 1015.5
20260506143924 59 9 3.0 6.0 0.00 0.07 0.07 77 1015.6
20260506143803 59 10 3.0 6.0 0.00 0.07 0.07 77 1015.5
20260506143703 60 8 3.0 6.0 0.00 0.07 0.07 77 1015.6
20260506143603 60 7 3.0 6.0 0.00 0.07 0.07 78 1015.6
20260506143503 60 6 3.0 6.0 0.00 0.07 0.07 78 1015.5
20260506143403 60 4 3.0 6.0 0.00 0.07 0.07 78 1015.6
20260506143303 60 3 3.0 4.0 0.00 0.07 0.07 79 1015.7
20260506143224 60 3 3.0 4.0 0.00 0.07 0.07 79 1015.7
20260506143124 60 359 3.0 7.0 0.00 0.07 0.07 77 1015.8
20260506143003 61 359 3.0 7.0 0.00 0.07 0.07 78 1015.6
20260506142903 61 357 3.0 7.0 0.00 0.07 0.07 77 1015.7
20260506142803 61 356 4.0 7.0 0.00 0.07 0.07 78 1015.7
20260506142703 61 356 4.0 7.0 0.00 0.07 0.07 78 1015.7
20260506142603 60 359 4.0 7.0 0.00 0.07 0.07 78 1015.4
20260506142503 60 360 4.0 7.0 0.00 0.07 0.07 77 1015.5
20260506142403 60 360 4.0 7.0 0.00 0.07 0.07 77 1015.5
20260506142305 60 359 4.0 7.0 0.00 0.07 0.07 78 1015.7
20260506142204 60 359 4.0 7.0 0.00 0.07 0.07 77 1015.6
20260506142103 60 1 4.0 7.0 0.00 0.07 0.07 78 1015.7
20260506142024 59 1 4.0 7.0 0.00 0.07 0.07 78 1015.6
20260506141903 59 360 4.0 7.0 0.00 0.07 0.07 78 1015.6
20260506141803 59 1 4.0 7.0 0.00 0.07 0.07 78 1015.5
20260506141724 59 2 4.0 7.0 0.00 0.07 0.07 78 1015.5
20260506141603 59 360 4.0 7.0 0.00 0.07 0.07 77 1015.8
20260506141503 59 359 3.0 7.0 0.00 0.07 0.07 77 1015.6
20260506141403 59 2 4.0 9.0 0.00 0.07 0.07 77 1015.7
20260506141303 59 2 4.0 9.0 0.00 0.07 0.07 77 1015.7
20260506141203 59 2 4.0 9.0 0.00 0.07 0.07 77 1015.7
20260506141103 59 2 4.0 9.0 0.00 0.07 0.07 77 1015.7
20260506141024 59 357 4.0 11.0 0.00 0.07 0.07 77 1015.6
20260506140903 59 353 4.0 11.0 0.00 0.07 0.07 77 1015.6
20260506140803 59 353 4.0 11.0 0.00 0.07 0.07 76 1015.9
20260506140703 59 350 4.0 11.0 0.00 0.07 0.07 77 1015.7
20260506140603 60 350 4.0 11.0 0.00 0.07 0.07 77 1015.7
20260506140503 60 345 4.0 11.0 0.00 0.07 0.07 77 1015.8
20260506140403 60 338 4.0 11.0 0.00 0.07 0.07 77 1015.7
20260506140303 60 328 3.0 11.0 0.00 0.07 0.07 77 1015.6
20260506140203 60 330 4.0 11.0 0.00 0.07 0.07 77 1015.7
20260506140024 60 330 4.0 11.0 0.00 0.07 0.07 76 1015.7
20260506135903 61 332 3.0 6.0 0.00 0.07 0.07 76 1015.8
20260506135803 61 332 3.0 6.0 0.00 0.07 0.07 77 1015.8
20260506135703 61 331 3.0 6.0 0.00 0.07 0.07 76 1015.7
20260506135603 61 328 3.0 6.0 0.00 0.07 0.07 76 1015.6
20260506135503 61 328 3.0 6.0 0.00 0.07 0.07 76 1015.6
20260506135403 61 339 3.0 6.0 0.00 0.07 0.07 75 1015.8
20260506135306 61 350 3.0 6.0 0.00 0.07 0.07 77 1015.9
20260506135203 61 349 3.0 7.0 0.00 0.07 0.07 77 1015.8
20260506135103 61 348 3.0 7.0 0.00 0.07 0.07 78 1015.9
20260506135003 60 347 3.0 7.0 0.00 0.07 0.07 79 1015.9
20260506134903 60 348 3.0 7.0 0.00 0.07 0.07 79 1015.8
20260506134803 60 343 3.0 7.0 0.00 0.07 0.07 79 1016.0
20260506134703 59 337 3.0 7.0 0.00 0.07 0.07 79 1015.8
20260506134624 59 336 3.0 7.0 0.00 0.07 0.07 78 1015.8
20260506134503 60 336 2.0 7.0 0.00 0.07 0.07 78 1015.9
20260506134403 60 333 2.0 7.0 0.00 0.07 0.07 78 1015.8
20260506134303 60 334 2.0 7.0 0.00 0.07 0.07 78 1015.8
20260506134204 60 339 2.0 4.0 0.00 0.07 0.07 78 1015.8
20260506134103 60 341 2.0 4.0 0.00 0.07 0.07 78 1015.8
20260506134025 60 341 2.0 4.0 0.00 0.07 0.07 78 1015.8
20260506133903 60 347 2.0 4.0 0.00 0.07 0.07 78 1015.8
20260506133803 60 351 2.0 4.0 0.00 0.07 0.07 78 1016.0
20260506133724 60 351 2.0 4.0 0.00 0.07 0.07 78 1016.0
20260506133603 60 355 2.0 4.0 0.00 0.07 0.07 78 1016.0
20260506133503 59 359 2.0 4.0 0.00 0.07 0.07 78 1015.9
20260506133403 59 1 2.0 4.0 0.00 0.07 0.07 77 1015.8
20260506133303 60 1 2.0 4.0 0.00 0.07 0.07 77 1015.9
20260506133203 60 360 2.0 4.0 0.00 0.07 0.07 77 1015.8
20260506133103 60 1 2.0 6.0 0.00 0.07 0.07 77 1015.8
20260506133003 60 360 2.0 6.0 0.00 0.07 0.07 77 1015.8
20260506132903 60 2 2.0 6.0 0.00 0.07 0.07 76 1015.9
20260506132803 60 2 2.0 6.0 0.00 0.07 0.07 76 1015.9
20260506132703 60 5 2.0 6.0 0.00 0.07 0.07 76 1015.8
20260506132624 60 5 2.0 6.0 0.00 0.07 0.07 76 1015.9
20260506132503 60 6 2.0 6.0 0.00 0.07 0.07 76 1015.9
20260506132403 60 359 2.0 6.0 0.00 0.07 0.07 76 1015.9
20260506132306 60 347 2.0 6.0 0.00 0.07 0.07 76 1015.8
20260506132203 60 348 2.0 6.0 0.00 0.07 0.07 76 1016.0
20260506132103 60 345 2.0 6.0 0.00 0.07 0.07 78 1015.9
20260506132003 60 345 2.0 6.0 0.00 0.07 0.07 79 1015.9
20260506131903 60 343 2.0 6.0 0.00 0.07 0.07 79 1015.9
20260506131803 60 345 3.0 6.0 0.00 0.07 0.07 78 1015.8
20260506131724 60 345 3.0 6.0 0.00 0.07 0.07 78 1015.8
20260506131603 60 343 3.0 7.0 0.00 0.07 0.07 79 1015.8
20260506131503 60 343 3.0 7.0 0.00 0.07 0.07 79 1015.8
20260506131403 60 342 3.0 7.0 0.00 0.07 0.07 79 1015.9
20260506131303 60 349 3.0 7.0 0.00 0.07 0.07 79 1016.0
20260506131203 60 354 3.0 7.0 0.00 0.07 0.07 79 1015.8
20260506131103 59 355 3.0 7.0 0.00 0.07 0.07 79 1015.9
20260506131003 59 358 4.0 7.0 0.00 0.07 0.07 78 1016.0
20260506130903 59 358 4.0 7.0 0.00 0.07 0.07 78 1015.9
20260506130824 59 360 4.0 7.0 0.00 0.07 0.07 78 1015.9
20260506130703 59 359 3.0 7.0 0.00 0.07 0.07 79 1015.9
20260506130603 60 360 3.0 7.0 0.00 0.07 0.07 78 1015.9
20260506130503 60 3 3.0 7.0 0.00 0.07 0.07 78 1016.0
20260506130403 60 3 3.0 7.0 0.00 0.07 0.07 78 1015.8
20260506130303 60 360 3.0 7.0 0.00 0.07 0.07 78 1015.9
20260506130204 60 5 3.0 7.0 0.00 0.07 0.07 78 1015.9
20260506130103 60 3 2.0 7.0 0.00 0.07 0.07 77 1015.9
20260506130003 60 2 2.0 4.0 0.00 0.07 0.07 77 1015.9
20260506125903 60 2 2.0 4.0 0.00 0.07 0.07 77 1015.9
20260506125824 60 2 2.0 4.0 0.00 0.07 0.07 77 1015.9
20260506125703 60 3 2.0 4.0 0.00 0.07 0.07 77 1016.0
20260506125603 60 2 2.0 4.0 0.00 0.07 0.07 76 1015.8
20260506125524 60 2 2.0 4.0 0.00 0.07 0.07 76 1015.8
20260506125403 60 3 2.0 4.0 0.00 0.07 0.07 76 1016.0
20260506125305 60 2 2.0 4.0 0.00 0.07 0.07 76 1016.1
20260506125203 60 6 2.0 7.0 0.00 0.07 0.07 76 1016.0
20260506125103 60 4 2.0 7.0 0.00 0.07 0.07 75 1016.0
20260506125003 60 4 2.0 7.0 0.00 0.07 0.07 75 1016.0
20260506124903 60 5 3.0 7.0 0.00 0.07 0.07 76 1015.9
20260506124803 60 3 3.0 7.0 0.00 0.07 0.07 76 1016.1
20260506124703 60 358 2.0 7.0 0.00 0.07 0.07 78 1016.0
20260506124603 60 358 3.0 7.0 0.00 0.07 0.07 77 1016.1
20260506124503 60 358 3.0 7.0 0.00 0.07 0.07 76 1016.1
20260506124403 60 357 2.0 7.0 0.00 0.07 0.07 77 1015.9
20260506124303 60 357 2.0 7.0 0.00 0.07 0.07 77 1015.9
20260506124203 60 353 2.0 7.0 0.00 0.07 0.07 75 1016.1
20260506124103 60 348 2.0 7.0 0.00 0.07 0.07 75 1016.0
20260506124002 60 348 2.0 6.0 0.00 0.07 0.07 75 1016.1
20260506123902 60 347 2.0 6.0 0.00 0.07 0.07 75 1016.1
20260506123802 61 338 2.0 3.0 0.00 0.07 0.07 75 1015.9
20260506123702 61 344 2.0 4.0 0.00 0.07 0.07 75 1016.2
20260506123603 61 354 2.0 7.0 0.00 0.07 0.07 75 1016.1
20260506123502 61 355 2.0 7.0 0.00 0.07 0.07 75 1016.0
20260506123424 60 355 2.0 7.0 0.00 0.07 0.07 74 1016.2
20260506123302 61 355 3.0 7.0 0.00 0.07 0.07 74 1016.2
20260506123224 61 355 3.0 7.0 0.00 0.07 0.07 74 1016.2
20260506123102 61 5 3.0 7.0 0.00 0.07 0.07 73 1016.2
20260506123002 61 2 3.0 7.0 0.00 0.07 0.07 74 1016.0
20260506122902 61 2 3.0 7.0 0.00 0.07 0.07 73 1016.1
20260506122823 61 2 3.0 7.0 0.00 0.07 0.07 73 1016.1
20260506122702 61 5 3.0 7.0 0.00 0.07 0.07 74 1016.0
20260506122602 61 5 3.0 7.0 0.00 0.07 0.07 72 1016.1
20260506122502 60 4 3.0 6.0 0.00 0.07 0.07 72 1016.2
20260506122402 60 4 3.0 6.0 0.00 0.07 0.07 72 1016.1
20260506122305 60 4 3.0 6.0 0.00 0.07 0.07 72 1016.3
20260506122203 60 2 3.0 6.0 0.00 0.07 0.07 73 1016.2
20260506122103 61 360 3.0 6.0 0.00 0.07 0.07 73 1016.2
20260506122002 61 359 2.0 6.0 0.00 0.07 0.07 73 1016.0
20260506121903 61 5 2.0 6.0 0.00 0.07 0.07 73 1016.1
20260506121802 62 5 2.0 6.0 0.00 0.07 0.07 75 1016.2
20260506121702 62 5 2.0 6.0 0.00 0.07 0.07 76 1016.1
20260506121603 62 6 2.0 4.0 0.00 0.07 0.07 75 1016.3
20260506121503 62 1 2.0 4.0 0.00 0.07 0.07 76 1016.2
20260506121403 62 359 2.0 4.0 0.00 0.07 0.07 75 1016.2
20260506121302 62 359 2.0 4.0 0.00 0.07 0.07 75 1016.3
20260506121203 62 358 2.0 6.0 0.00 0.07 0.07 74 1016.3
20260506121103 62 359 2.0 6.0 0.00 0.07 0.07 76 1016.1
20260506121002 62 358 2.0 6.0 0.00 0.07 0.07 76 1016.3
20260506120902 61 356 2.0 6.0 0.00 0.07 0.07 76 1016.3
20260506120802 61 354 3.0 6.0 0.00 0.07 0.07 75 1016.3
20260506120703 61 354 3.0 6.0 0.00 0.07 0.07 75 1016.3
20260506120602 61 355 3.0 6.0 0.00 0.07 0.07 75 1016.3
20260506120502 61 350 3.0 6.0 0.00 0.07 0.07 76 1016.2
20260506120424 61 352 3.0 6.0 0.00 0.07 0.07 75 1016.3
20260506120303 61 352 3.0 6.0 0.00 0.07 0.07 76 1016.4